Time,TemperatureF,DewpointF,PressureIn,WindDirection,WindDirectionDegrees,WindSpeedMPH,WindSpeedGustMPH,Humidity,HourlyPrecipIn,Conditions,Clouds,dailyrainin,SoftwareType,DateUTC
2013-01-14 00:03:00,49.5,46.7,29.63,WSW,246,2.7,5.4,90,0.08,,,0.00,VWS V13.01,2013-01-13 23:03:00,
2013-01-14 00:08:00,49.5,47.0,29.63,ESE,115,3.6,4.0,91,0.08,,,0.00,VWS V13.01,2013-01-13 23:08:00,
2013-01-14 00:13:00,49.5,46.7,29.63,ESE,114,3.6,5.4,90,0.04,,,0.00,VWS V13.01,2013-01-13 23:13:00,
2013-01-14 00:18:00,49.5,47.0,29.63,West,281,2.2,2.7,91,0.04,,,0.00,VWS V13.01,2013-01-13 23:18:00,
2013-01-14 00:23:00,49.6,47.1,29.63,NNE,31,2.2,2.7,91,0.04,,,0.00,VWS V13.01,2013-01-13 23:23:00,
2013-01-14 00:28:00,50.0,47.5,29.63,North,357,3.1,4.9,91,0.00,,,0.00,VWS V13.01,2013-01-13 23:28:00,
2013-01-14 00:33:00,50.2,47.7,29.63,SSE,167,4.0,5.4,91,0.00,,,0.00,VWS V13.01,2013-01-13 23:33:00,
2013-01-14 00:38:00,50.5,48.0,29.63,ESE,110,3.6,11.9,91,0.00,,,0.00,VWS V13.01,2013-01-13 23:38:00,
2013-01-14 00:43:00,50.7,48.2,29.63,SW,222,5.4,8.1,91,0.00,,,0.00,VWS V13.01,2013-01-13 23:43:00,
2013-01-14 00:48:00,51.1,48.2,29.63,NNW,335,10.1,10.1,90,0.00,,,0.00,VWS V13.01,2013-01-13 23:48:00,
2013-01-14 00:53:00,51.3,48.1,29.63,West,268,4.9,8.1,89,0.00,,,0.00,VWS V13.01,2013-01-13 23:53:00,
2013-01-14 00:58:00,51.3,48.1,29.63,SW,220,5.4,5.8,89,0.00,,,0.00,VWS V13.01,2013-01-13 23:58:00,
2013-01-14 01:03:00,51.4,48.3,29.63,SE,131,2.7,8.3,89,0.00,,BKN025,0.00,VWS V13.01,2013-01-14 00:03:00,
2013-01-14 01:09:00,51.4,48.0,29.63,WNW,282,5.4,8.1,88,0.00,,BKN025,0.00,VWS V13.01,2013-01-14 00:09:00,
2013-01-14 01:14:00,51.6,47.9,29.63,NNW,344,2.7,9.6,87,0.00,,BKN025,0.00,VWS V13.01,2013-01-14 00:14:00,
2013-01-14 01:19:00,51.6,47.6,29.63,SE,142,4.9,7.6,86,0.00,,BKN025,0.00,VWS V13.01,2013-01-14 00:19:00,
2013-01-14 01:24:00,51.8,47.4,29.63,WSW,246,5.4,8.3,85,0.00,,BKN025,0.00,VWS V13.01,2013-01-14 00:24:00,
2013-01-14 01:29:00,52.0,47.6,29.60,ESE,112,4.0,8.1,85,0.00,,BKN025,0.00,VWS V13.01,2013-01-14 00:29:00,
2013-01-14 01:34:00,52.2,47.5,29.60,WSW,244,8.1,8.1,84,0.00,,BKN025,0.00,VWS V13.01,2013-01-14 00:34:00,
2013-01-14 01:39:00,52.3,47.7,29.60,SSW,199,2.2,2.7,84,0.00,,BKN025,0.00,VWS V13.01,2013-01-14 00:39:00,
2013-01-14 01:44:00,52.2,47.5,29.63,SSE,147,5.4,5.4,84,0.00,,BKN025,0.00,VWS V13.01,2013-01-14 00:44:00,
2013-01-14 01:49:00,51.8,46.8,29.63,SSW,204,3.6,3.6,83,0.00,,BKN025,0.00,VWS V13.01,2013-01-14 00:49:00,
2013-01-14 01:54:00,51.8,47.1,29.63,South,174,5.4,5.4,84,0.00,,BKN025,0.00,VWS V13.01,2013-01-14 00:54:00,
2013-01-14 01:59:00,52.2,47.8,29.63,South,183,5.4,5.4,85,0.00,,BKN025,0.00,VWS V13.01,2013-01-14 00:59:00,
2013-01-14 02:04:00,53.1,47.4,29.63,ESE,117,6.3,11.0,81,0.04,,SCT025,0.04,VWS V13.01,2013-01-14 01:04:00,
2013-01-14 02:09:00,53.4,45.7,29.63,East,96,5.4,5.8,75,0.04,,SCT025,0.04,VWS V13.01,2013-01-14 01:09:00,
2013-01-14 02:14:00,53.8,44.2,29.63,SE,133,6.3,10.5,70,0.04,,SCT025,0.04,VWS V13.01,2013-01-14 01:14:00,
2013-01-14 02:19:00,54.0,43.3,29.63,ENE,75,5.8,11.4,67,0.04,,SCT025,0.04,VWS V13.01,2013-01-14 01:19:00,
2013-01-14 02:24:00,54.1,42.7,29.63,SE,131,3.6,13.2,65,0.04,,SCT025,0.04,VWS V13.01,2013-01-14 01:24:00,
2013-01-14 02:29:00,54.0,42.5,29.63,South,178,5.4,7.6,65,0.04,,SCT025,0.04,VWS V13.01,2013-01-14 01:29:00,
2013-01-14 02:34:00,54.0,42.5,29.63,SSE,147,6.3,6.3,65,0.04,,SCT025,0.04,VWS V13.01,2013-01-14 01:34:00,
2013-01-14 02:39:00,54.0,42.9,29.63,SW,229,5.4,8.1,66,0.04,,SCT025,0.04,VWS V13.01,2013-01-14 01:39:00,
2013-01-14 02:44:00,54.3,43.2,29.63,East,92,4.9,13.6,66,0.04,,SCT025,0.04,VWS V13.01,2013-01-14 01:44:00,
2013-01-14 02:49:00,54.3,44.0,29.63,NE,51,6.3,6.3,68,0.04,,SCT025,0.04,VWS V13.01,2013-01-14 01:49:00,
2013-01-14 02:54:00,54.3,45.1,29.63,West,261,5.8,7.6,71,0.04,,SCT025,0.04,VWS V13.01,2013-01-14 01:54:00,
2013-01-14 02:59:00,54.1,45.3,29.63,SSE,162,6.3,6.3,72,0.04,,SCT025,0.04,VWS V13.01,2013-01-14 01:59:00,
2013-01-14 03:04:00,54.3,45.5,29.63,SSE,152,8.3,8.3,72,0.00,,BKN025,0.04,VWS V13.01,2013-01-14 02:04:00,
2013-01-14 03:09:00,54.5,45.7,29.63,NNE,16,6.3,6.3,72,0.00,,BKN025,0.04,VWS V13.01,2013-01-14 02:09:00,
2013-01-14 03:14:00,54.5,45.7,29.63,South,183,11.9,11.9,72,0.00,,BKN025,0.04,VWS V13.01,2013-01-14 02:14:00,
2013-01-14 03:19:00,54.5,45.3,29.63,SSE,168,7.2,10.1,71,0.00,,BKN025,0.04,VWS V13.01,2013-01-14 02:19:00,
2013-01-14 03:24:00,54.7,45.5,29.63,SE,136,5.8,7.6,71,0.00,,BKN025,0.04,VWS V13.01,2013-01-14 02:24:00,
2013-01-14 03:29:00,54.9,45.3,29.60,ESE,103,8.3,10.1,70,0.00,,BKN025,0.04,VWS V13.01,2013-01-14 02:29:00,
2013-01-14 03:34:00,55.0,45.1,29.60,ESE,113,5.4,8.1,69,0.00,,BKN025,0.04,VWS V13.01,2013-01-14 02:34:00,
2013-01-14 03:39:00,54.9,44.5,29.60,NW,311,4.9,10.1,68,0.00,,BKN025,0.04,VWS V13.01,2013-01-14 02:39:00,
2013-01-14 03:44:00,54.5,44.2,29.63,SE,132,8.1,8.1,68,0.00,,BKN025,0.04,VWS V13.01,2013-01-14 02:44:00,
2013-01-14 03:49:00,54.7,43.6,29.63,SSE,168,3.6,5.8,66,0.00,,BKN025,0.04,VWS V13.01,2013-01-14 02:49:00,
2013-01-14 03:54:00,54.9,44.1,29.63,SE,130,7.6,8.3,67,0.00,,BKN025,0.04,VWS V13.01,2013-01-14 02:54:00,
2013-01-14 03:59:00,54.9,44.9,29.63,SE,134,6.3,7.6,69,0.00,,BKN025,0.04,VWS V13.01,2013-01-14 02:59:00,
2013-01-14 04:04:00,53.4,43.1,29.63,SSW,206,5.8,8.1,68,0.04,,-RA,0.08,VWS V13.01,2013-01-14 03:04:00,
2013-01-14 04:09:00,53.2,44.5,29.63,SE,136,2.7,8.1,72,0.04,,-RA,0.08,VWS V13.01,2013-01-14 03:09:00,
2013-01-14 04:14:00,53.4,46.1,29.60,SSE,154,8.3,10.5,76,0.04,,-RA,0.08,VWS V13.01,2013-01-14 03:14:00,
2013-01-14 04:19:00,54.1,45.3,29.60,South,181,8.7,10.5,72,0.04,,-RA,0.08,VWS V13.01,2013-01-14 03:19:00,
2013-01-14 04:24:00,54.1,44.2,29.60,SSW,200,8.7,13.2,69,0.04,,-RA,0.12,VWS V13.01,2013-01-14 03:24:00,
2013-01-14 04:29:00,54.0,44.4,29.60,SSE,162,4.9,10.5,70,0.08,,-RA,0.12,VWS V13.01,2013-01-14 03:29:00,
2013-01-14 04:34:00,53.6,44.1,29.60,South,189,3.1,5.8,70,0.08,,-RA,0.12,VWS V13.01,2013-01-14 03:34:00,
2013-01-14 04:39:00,53.4,44.6,29.60,NW,309,4.9,6.7,72,0.08,,-RA,0.12,VWS V13.01,2013-01-14 03:39:00,
2013-01-14 04:44:00,53.2,44.5,29.60,South,183,8.3,8.3,72,0.08,,-RA,0.12,VWS V13.01,2013-01-14 03:44:00,
2013-01-14 04:49:00,53.1,43.5,29.60,ESE,117,5.8,5.8,70,0.08,,-RA,0.12,VWS V13.01,2013-01-14 03:49:00,
2013-01-14 04:54:00,53.1,42.4,29.60,WNW,303,6.7,6.7,67,0.08,,-RA,0.12,VWS V13.01,2013-01-14 03:54:00,
2013-01-14 04:59:00,53.1,42.4,29.63,North,357,4.9,4.9,67,0.08,,-RA,0.12,VWS V13.01,2013-01-14 03:59:00,
2013-01-14 05:04:00,53.1,42.4,29.63,SE,139,4.5,10.5,67,0.04,,-RA,0.12,VWS V13.01,2013-01-14 04:04:00,
2013-01-14 05:09:00,53.1,42.4,29.63,South,180,2.7,4.5,67,0.04,,-RA,0.12,VWS V13.01,2013-01-14 04:09:00,
2013-01-14 05:14:00,53.2,43.0,29.60,SE,128,6.3,7.6,68,0.04,,-RA,0.12,VWS V13.01,2013-01-14 04:14:00,
2013-01-14 05:19:00,53.4,43.1,29.60,SW,233,4.0,8.7,68,0.04,,-RA,0.12,VWS V13.01,2013-01-14 04:19:00,
2013-01-14 05:24:00,53.2,43.3,29.60,NNW,340,4.5,7.6,69,0.04,,-RA,0.12,VWS V13.01,2013-01-14 04:24:00,
2013-01-14 05:29:00,53.1,43.5,29.60,NNE,16,4.0,6.3,70,0.00,,-RA,0.12,VWS V13.01,2013-01-14 04:29:00,
2013-01-14 05:34:00,52.7,43.6,29.60,SSE,153,2.7,4.0,71,0.00,,-RA,0.12,VWS V13.01,2013-01-14 04:34:00,
2013-01-14 05:39:00,52.3,43.2,29.60,WNW,289,4.0,7.6,71,0.00,,-RA,0.12,VWS V13.01,2013-01-14 04:39:00,
2013-01-14 05:44:00,52.2,43.4,29.60,West,259,2.7,10.1,72,0.00,,-RA,0.12,VWS V13.01,2013-01-14 04:44:00,
2013-01-14 05:49:00,52.3,44.0,29.60,SSE,159,2.7,7.6,73,0.00,,-RA,0.12,VWS V13.01,2013-01-14 04:49:00,
2013-01-14 05:54:00,52.5,44.1,29.60,West,269,3.6,4.9,73,0.00,,-RA,0.12,VWS V13.01,2013-01-14 04:54:00,
2013-01-14 05:59:00,52.5,44.1,29.60,SE,135,4.0,4.9,73,0.00,,-RA,0.12,VWS V13.01,2013-01-14 04:59:00,
2013-01-14 06:00:00,52.5,44.5,29.60,SE,131,2.7,8.1,74,0.00,,SCT030,0.12,VWS V13.01,2013-01-14 05:00:00,
2013-01-14 06:01:00,52.5,44.5,29.60,North,2,3.1,4.0,74,0.00,,SCT030,0.12,VWS V13.01,2013-01-14 05:01:00,
2013-01-14 06:02:00,52.5,44.1,29.60,South,178,3.6,4.0,73,0.00,,SCT030,0.12,VWS V13.01,2013-01-14 05:02:00,
2013-01-14 06:03:00,52.5,44.1,29.60,NNW,330,3.1,4.0,73,0.00,,SCT030,0.12,VWS V13.01,2013-01-14 05:03:00,
2013-01-14 06:08:00,52.5,44.5,29.60,South,180,3.1,3.1,74,0.00,,SCT030,0.12,VWS V13.01,2013-01-14 05:08:00,
2013-01-14 06:13:00,52.9,44.5,29.60,SSE,164,2.7,6.3,73,0.00,,SCT030,0.12,VWS V13.01,2013-01-14 05:13:00,
2013-01-14 06:18:00,53.1,44.7,29.60,ESE,119,3.1,3.1,73,0.00,,SCT030,0.12,VWS V13.01,2013-01-14 05:18:00,
2013-01-14 06:23:00,53.1,44.7,29.60,ESE,115,10.1,10.1,73,0.00,,SCT030,0.12,VWS V13.01,2013-01-14 05:23:00,
2013-01-14 06:28:00,53.2,44.5,29.63,WSW,241,6.3,6.3,72,0.00,,SCT030,0.12,VWS V13.01,2013-01-14 05:28:00,
2013-01-14 06:33:00,53.4,44.3,29.63,SSW,204,2.7,4.0,71,0.00,,SCT030,0.12,VWS V13.01,2013-01-14 05:33:00,
2013-01-14 06:38:00,54.0,44.4,29.63,SSW,212,4.9,5.8,70,0.00,,SCT030,0.12,VWS V13.01,2013-01-14 05:38:00,
2013-01-14 06:50:00,54.3,42.8,29.63,SW,228,7.6,7.6,65,0.00,,SCT030,0.12,VWS V13.01,2013-01-14 05:50:00,
2013-01-14 06:55:00,54.3,41.6,29.63,SE,143,5.4,11.0,62,0.00,,SCT030,0.12,VWS V13.01,2013-01-14 05:55:00,
2013-01-14 07:00:00,54.1,40.1,29.63,SE,132,3.6,3.6,59,0.00,,RA,0.12,VWS V13.01,2013-01-14 06:00:00,
2013-01-14 07:05:00,54.1,39.3,29.63,SSE,158,4.9,5.8,57,0.00,,RA,0.12,VWS V13.01,2013-01-14 06:05:00,
2013-01-14 07:10:00,54.0,38.6,29.63,SSW,201,3.1,3.1,56,0.00,,RA,0.12,VWS V13.01,2013-01-14 06:10:00,
2013-01-14 07:15:00,53.8,38.5,29.63,ESE,118,3.1,4.0,56,0.00,,RA,0.12,VWS V13.01,2013-01-14 06:15:00,
2013-01-14 07:20:00,53.6,38.3,29.63,SW,218,5.4,5.4,56,0.00,,RA,0.12,VWS V13.01,2013-01-14 06:20:00,
2013-01-14 07:25:00,53.6,38.8,29.63,South,187,2.7,3.6,57,0.00,,RA,0.12,VWS V13.01,2013-01-14 06:25:00,
2013-01-14 07:30:00,53.4,39.5,29.63,SW,218,2.7,3.1,59,0.00,,RA,0.12,VWS V13.01,2013-01-14 06:30:00,
2013-01-14 07:35:00,53.4,39.0,29.63,NW,319,4.9,4.9,58,0.00,,RA,0.12,VWS V13.01,2013-01-14 06:35:00,
2013-01-14 07:40:00,53.4,39.0,29.63,NNW,334,2.7,4.9,58,0.00,,RA,0.12,VWS V13.01,2013-01-14 06:40:00,
2013-01-14 07:45:00,53.4,39.0,29.63,West,277,3.6,4.0,58,0.00,,RA,0.12,VWS V13.01,2013-01-14 06:45:00,
2013-01-14 07:50:00,53.2,38.4,29.63,SW,236,6.7,6.7,57,0.00,,RA,0.12,VWS V13.01,2013-01-14 06:50:00,
2013-01-14 07:55:00,53.4,38.1,29.63,ENE,62,5.4,5.4,56,0.00,,RA,0.12,VWS V13.01,2013-01-14 06:55:00,
2013-01-14 08:00:00,53.6,37.8,29.63,SSW,199,3.6,3.6,55,0.00,,-RA,0.12,VWS V13.01,2013-01-14 07:00:00,
2013-01-14 08:05:00,53.6,37.8,29.63,North,0,2.7,6.3,55,0.00,,-RA,0.12,VWS V13.01,2013-01-14 07:05:00,
2013-01-14 08:10:00,53.6,38.3,29.63,SSW,200,2.7,3.6,56,0.00,,-RA,0.12,VWS V13.01,2013-01-14 07:10:00,
2013-01-14 08:15:00,53.4,38.6,29.63,WSW,240,2.2,4.0,57,0.00,,-RA,0.12,VWS V13.01,2013-01-14 07:15:00,
2013-01-14 08:20:00,53.4,39.0,29.63,SSE,164,4.9,5.8,58,0.00,,-RA,0.12,VWS V13.01,2013-01-14 07:20:00,
2013-01-14 08:25:00,53.6,38.8,29.63,SW,217,3.1,3.1,57,0.00,,-RA,0.12,VWS V13.01,2013-01-14 07:25:00,
2013-01-14 08:30:00,53.6,38.8,29.63,SSE,164,3.1,4.0,57,0.00,,-RA,0.12,VWS V13.01,2013-01-14 07:30:00,
2013-01-14 08:35:00,53.8,38.5,29.63,SSW,213,0.0,2.7,56,0.00,,-RA,0.12,VWS V13.01,2013-01-14 07:35:00,
2013-01-14 08:40:00,53.8,38.5,29.63,ESE,108,3.6,5.8,56,0.00,,-RA,0.12,VWS V13.01,2013-01-14 07:40:00,
2013-01-14 08:45:00,54.0,38.2,29.66,NNE,33,4.0,4.0,55,0.00,,-RA,0.12,VWS V13.01,2013-01-14 07:45:00,
2013-01-14 08:50:00,54.0,37.7,29.66,ESE,104,2.7,4.0,54,0.00,,-RA,0.12,VWS V13.01,2013-01-14 07:50:00,
2013-01-14 08:55:00,54.1,37.4,29.66,South,190,3.6,5.8,53,0.00,,-RA,0.12,VWS V13.01,2013-01-14 07:55:00,
2013-01-14 09:00:00,54.3,37.1,29.66,NW,313,6.3,6.3,52,0.00,,-RA,0.12,VWS V13.01,2013-01-14 08:00:00,
2013-01-14 09:05:00,54.5,37.2,29.66,SSE,150,3.6,3.6,52,0.00,,-RA,0.12,VWS V13.01,2013-01-14 08:05:00,
2013-01-14 09:10:00,54.5,37.2,29.66,SSW,209,4.0,4.0,52,0.00,,-RA,0.12,VWS V13.01,2013-01-14 08:10:00,
2013-01-14 09:15:00,54.5,38.2,29.66,NNW,337,3.1,6.3,54,0.00,,-RA,0.12,VWS V13.01,2013-01-14 08:15:00,
2013-01-14 09:20:00,54.1,38.8,29.66,SSW,212,2.2,4.0,56,0.00,,-RA,0.12,VWS V13.01,2013-01-14 08:20:00,
2013-01-14 09:25:00,54.1,39.3,29.66,SSW,199,3.6,7.6,57,0.00,,-RA,0.12,VWS V13.01,2013-01-14 08:25:00,
2013-01-14 09:31:00,54.3,39.0,29.66,SW,229,2.7,3.6,56,0.00,,-RA,0.12,VWS V13.01,2013-01-14 08:31:00,
2013-01-14 09:36:00,54.5,39.1,29.66,NW,305,0.0,3.1,56,0.00,,-RA,0.12,VWS V13.01,2013-01-14 08:36:00,
2013-01-14 09:41:00,54.5,39.1,29.66,South,171,3.1,6.3,56,0.00,,-RA,0.12,VWS V13.01,2013-01-14 08:41:00,
2013-01-14 09:46:00,54.5,39.1,29.66,SSW,199,2.7,4.0,56,0.00,,-RA,0.12,VWS V13.01,2013-01-14 08:46:00,
2013-01-14 09:51:00,54.3,39.4,29.66,WNW,291,3.1,5.4,57,0.00,,-RA,0.12,VWS V13.01,2013-01-14 08:51:00,
2013-01-14 09:56:00,54.3,39.9,29.66,South,185,4.9,5.8,58,0.00,,-RA,0.12,VWS V13.01,2013-01-14 08:56:00,
2013-01-14 10:01:00,54.0,40.8,29.66,SW,226,4.0,4.9,61,0.00,,-RA,0.12,VWS V13.01,2013-01-14 09:01:00,
2013-01-14 10:06:00,54.0,41.2,29.66,NW,308,2.7,3.1,62,0.00,,-RA,0.12,VWS V13.01,2013-01-14 09:06:00,
2013-01-14 10:11:00,54.1,41.8,29.66,WNW,292,4.0,5.4,63,0.00,,-RA,0.12,VWS V13.01,2013-01-14 09:11:00,
2013-01-14 10:16:00,54.3,42.0,29.66,North,0,4.0,4.9,63,0.00,,-RA,0.12,VWS V13.01,2013-01-14 09:16:00,
2013-01-14 10:21:00,54.5,41.8,29.66,SSW,208,3.1,3.6,62,0.00,,-RA,0.12,VWS V13.01,2013-01-14 09:21:00,
2013-01-14 10:22:00,54.7,41.9,29.66,SSW,200,4.0,4.0,62,0.00,,-RA,0.12,VWS V13.01,2013-01-14 09:22:00,
2013-01-14 10:23:00,54.7,41.9,29.66,SSW,209,4.0,4.9,62,0.00,,-RA,0.12,VWS V13.01,2013-01-14 09:23:00,
2013-01-14 10:24:00,54.7,41.9,29.66,WSW,246,3.1,5.4,62,0.00,,-RA,0.12,VWS V13.01,2013-01-14 09:24:00,
2013-01-14 10:25:00,54.9,41.7,29.66,SW,214,4.0,5.4,61,0.00,,-RA,0.12,VWS V13.01,2013-01-14 09:25:00,
2013-01-14 10:26:00,54.9,41.7,29.66,WSW,244,4.0,6.3,61,0.00,,-RA,0.12,VWS V13.01,2013-01-14 09:26:00,
2013-01-14 10:27:00,54.9,41.7,29.66,WSW,250,2.2,4.0,61,0.00,,-RA,0.12,VWS V13.01,2013-01-14 09:27:00,
2013-01-14 10:28:00,55.2,41.6,29.66,SSE,167,4.9,4.9,60,0.00,,-RA,0.12,VWS V13.01,2013-01-14 09:28:00,
2013-01-14 10:29:00,55.2,41.6,29.66,WNW,303,2.7,4.9,60,0.00,,-RA,0.12,VWS V13.01,2013-01-14 09:29:00,
2013-01-14 10:30:00,55.2,41.6,29.66,SSW,207,3.1,5.4,60,0.00,,-RA,0.12,VWS V13.01,2013-01-14 09:30:00,
2013-01-14 10:31:00,55.2,40.3,29.66,SSW,209,10.1,10.1,57,0.00,,-RA,0.12,VWS V13.01,2013-01-14 09:31:00,
2013-01-14 10:32:00,55.2,40.3,29.66,SSW,206,4.0,10.5,57,0.00,,-RA,0.12,VWS V13.01,2013-01-14 09:32:00,
2013-01-14 10:33:00,55.2,40.7,29.66,SE,145,3.6,5.8,58,0.00,,-RA,0.12,VWS V13.01,2013-01-14 09:33:00,
2013-01-14 10:34:00,55.2,40.7,29.66,ESE,109,3.1,8.1,58,0.00,,-RA,0.12,VWS V13.01,2013-01-14 09:34:00,
2013-01-14 10:35:00,55.2,40.7,29.66,West,270,8.3,8.3,58,0.00,,-RA,0.12,VWS V13.01,2013-01-14 09:35:00,
2013-01-14 10:36:00,55.0,41.0,29.66,SSW,205,11.0,11.0,59,0.00,,-RA,0.12,VWS V13.01,2013-01-14 09:36:00,
2013-01-14 10:37:00,54.9,39.9,29.66,WNW,294,8.3,12.3,57,0.00,,-RA,0.12,VWS V13.01,2013-01-14 09:37:00,
2013-01-14 10:38:00,54.9,39.9,29.66,SW,229,5.4,8.3,57,0.00,,-RA,0.12,VWS V13.01,2013-01-14 09:38:00,
2013-01-14 10:39:00,54.9,40.8,29.66,SW,224,7.6,10.1,59,0.00,,-RA,0.12,VWS V13.01,2013-01-14 09:39:00,
2013-01-14 10:40:00,54.7,39.8,29.66,SSW,210,10.1,10.1,57,0.00,,-RA,0.12,VWS V13.01,2013-01-14 09:40:00,
2013-01-14 10:41:00,54.7,40.2,29.66,SSW,205,4.9,10.5,58,0.00,,-RA,0.12,VWS V13.01,2013-01-14 09:41:00,
2013-01-14 10:42:00,54.5,40.0,29.69,SSW,209,5.4,11.0,58,0.00,,-RA,0.12,VWS V13.01,2013-01-14 09:42:00,
2013-01-14 10:43:00,54.5,40.0,29.69,SE,131,4.0,8.3,58,0.00,,-RA,0.12,VWS V13.01,2013-01-14 09:43:00,
2013-01-14 10:44:00,54.5,40.5,29.69,South,187,8.1,8.1,59,0.00,,-RA,0.12,VWS V13.01,2013-01-14 09:44:00,
2013-01-14 10:45:00,54.5,40.5,29.69,West,259,4.0,8.1,59,0.00,,-RA,0.12,VWS V13.01,2013-01-14 09:45:00,
2013-01-14 10:46:00,54.5,40.9,29.69,SSW,201,8.7,8.7,60,0.00,,-RA,0.12,VWS V13.01,2013-01-14 09:46:00,
2013-01-14 10:47:00,54.5,40.9,29.69,SSW,197,6.3,8.7,60,0.00,,-RA,0.12,VWS V13.01,2013-01-14 09:47:00,
2013-01-14 10:48:00,54.5,40.9,29.69,SSW,204,3.6,6.3,60,0.00,,-RA,0.12,VWS V13.01,2013-01-14 09:48:00,
2013-01-14 10:49:00,54.5,40.9,29.69,WSW,243,8.1,8.7,60,0.00,,-RA,0.12,VWS V13.01,2013-01-14 09:49:00,
2013-01-14 10:50:00,54.5,40.9,29.69,SW,216,10.1,11.0,60,0.00,,-RA,0.12,VWS V13.01,2013-01-14 09:50:00,
2013-01-14 10:51:00,54.5,40.0,29.69,SW,217,5.8,10.1,58,0.00,,-RA,0.12,VWS V13.01,2013-01-14 09:51:00,
2013-01-14 10:52:00,54.5,40.0,29.69,SW,236,6.3,6.3,58,0.00,,-RA,0.12,VWS V13.01,2013-01-14 09:52:00,
2013-01-14 10:53:00,54.5,39.6,29.69,NW,322,4.0,8.3,57,0.00,,-RA,0.12,VWS V13.01,2013-01-14 09:53:00,
2013-01-14 10:54:00,54.5,40.0,29.69,South,183,3.1,4.0,58,0.00,,-RA,0.12,VWS V13.01,2013-01-14 09:54:00,
2013-01-14 10:55:00,54.7,40.2,29.69,SW,227,5.8,5.8,58,0.00,,-RA,0.12,VWS V13.01,2013-01-14 09:55:00,
2013-01-14 10:56:00,54.7,40.2,29.69,SE,141,7.2,8.1,58,0.00,,-RA,0.12,VWS V13.01,2013-01-14 09:56:00,
2013-01-14 10:57:00,54.5,39.1,29.69,SSW,212,10.1,10.5,56,0.00,,-RA,0.12,VWS V13.01,2013-01-14 09:57:00,
2013-01-14 10:58:00,54.7,39.3,29.69,West,281,10.1,10.1,56,0.00,,-RA,0.12,VWS V13.01,2013-01-14 09:58:00,
2013-01-14 10:59:00,54.7,39.3,29.69,SSW,192,8.3,10.1,56,0.00,,-RA,0.12,VWS V13.01,2013-01-14 09:59:00,
2013-01-14 11:00:00,54.9,38.5,29.69,SSW,200,5.8,15.4,54,0.00,,-RA,0.12,VWS V13.01,2013-01-14 10:00:00,
2013-01-14 11:01:00,54.9,38.1,29.69,SSW,205,8.7,14.1,53,0.00,,-RA,0.12,VWS V13.01,2013-01-14 10:01:00,
2013-01-14 11:02:00,55.0,38.2,29.69,WNW,303,8.3,11.0,53,0.00,,-RA,0.12,VWS V13.01,2013-01-14 10:02:00,
2013-01-14 11:03:00,55.2,39.3,29.69,South,181,4.5,10.1,55,0.00,,-RA,0.12,VWS V13.01,2013-01-14 10:03:00,
2013-01-14 11:04:00,55.0,38.7,29.69,SSW,203,9.6,9.6,54,0.00,,-RA,0.12,VWS V13.01,2013-01-14 10:04:00,
2013-01-14 11:05:00,55.2,39.3,29.69,NE,49,5.4,9.6,55,0.00,,-RA,0.12,VWS V13.01,2013-01-14 10:05:00,
2013-01-14 11:06:00,55.2,38.9,29.69,SSE,165,7.2,7.2,54,0.00,,-RA,0.12,VWS V13.01,2013-01-14 10:06:00,
2013-01-14 11:07:00,55.2,38.9,29.69,SW,219,8.1,8.1,54,0.00,,-RA,0.12,VWS V13.01,2013-01-14 10:07:00,
2013-01-14 11:08:00,55.2,38.9,29.69,West,261,8.7,10.1,54,0.00,,-RA,0.12,VWS V13.01,2013-01-14 10:08:00,
2013-01-14 11:09:00,55.0,37.8,29.69,SSW,208,5.4,12.8,52,0.00,,-RA,0.12,VWS V13.01,2013-01-14 10:09:00,
2013-01-14 11:10:00,55.0,37.3,29.69,WNW,290,13.6,13.6,51,0.00,,-RA,0.12,VWS V13.01,2013-01-14 10:10:00,
2013-01-14 11:11:00,55.2,37.9,29.69,SSE,159,11.0,13.6,52,0.00,,-RA,0.12,VWS V13.01,2013-01-14 10:11:00,
2013-01-14 11:12:00,55.0,36.8,29.69,SW,221,8.1,15.0,50,0.00,,-RA,0.12,VWS V13.01,2013-01-14 10:12:00,
2013-01-14 11:13:00,55.0,36.8,29.69,WSW,237,5.8,12.3,50,0.00,,-RA,0.12,VWS V13.01,2013-01-14 10:13:00,
2013-01-14 11:14:00,55.0,37.3,29.69,SW,216,5.8,8.7,51,0.00,,-RA,0.12,VWS V13.01,2013-01-14 10:14:00,
2013-01-14 11:15:00,55.0,37.8,29.69,South,187,9.2,9.2,52,0.00,,-RA,0.12,VWS V13.01,2013-01-14 10:15:00,
2013-01-14 11:16:00,55.0,37.8,29.69,WSW,250,5.8,10.1,52,0.00,,-RA,0.12,VWS V13.01,2013-01-14 10:16:00,
2013-01-14 11:17:00,54.9,37.1,29.69,West,260,10.5,10.5,51,0.00,,-RA,0.12,VWS V13.01,2013-01-14 10:17:00,
2013-01-14 11:18:00,54.9,37.6,29.69,SW,218,6.3,13.2,52,0.00,,-RA,0.12,VWS V13.01,2013-01-14 10:18:00,
2013-01-14 11:19:00,54.9,37.1,29.69,SW,222,12.8,17.4,51,0.00,,-RA,0.12,VWS V13.01,2013-01-14 10:19:00,
2013-01-14 11:20:00,54.7,37.4,29.69,West,260,8.1,15.4,52,0.00,,-RA,0.12,VWS V13.01,2013-01-14 10:20:00,
2013-01-14 11:21:00,54.5,37.2,29.69,SW,216,12.8,19.2,52,0.00,,-RA,0.12,VWS V13.01,2013-01-14 10:21:00,
2013-01-14 11:22:00,54.5,37.7,29.69,South,175,4.0,14.5,53,0.00,,-RA,0.12,VWS V13.01,2013-01-14 10:22:00,
2013-01-14 11:23:00,54.5,38.2,29.69,SSW,204,10.1,16.8,54,0.00,,-RA,0.12,VWS V13.01,2013-01-14 10:23:00,
2013-01-14 11:24:00,54.1,38.3,29.69,SE,143,7.6,12.8,55,0.00,,-RA,0.12,VWS V13.01,2013-01-14 10:24:00,
2013-01-14 11:25:00,54.0,38.6,29.69,SSW,201,8.7,8.7,56,0.00,,-RA,0.12,VWS V13.01,2013-01-14 10:25:00,
2013-01-14 11:26:00,53.8,39.4,29.69,SSW,207,8.1,8.7,58,0.00,,-RA,0.12,VWS V13.01,2013-01-14 10:26:00,
2013-01-14 11:27:00,53.6,39.2,29.69,SSW,207,8.1,9.2,58,0.00,,-RA,0.12,VWS V13.01,2013-01-14 10:27:00,
2013-01-14 11:28:00,53.6,39.6,29.69,SSW,203,3.6,10.1,59,0.00,,-RA,0.12,VWS V13.01,2013-01-14 10:28:00,
2013-01-14 11:29:00,53.4,39.5,29.69,SE,130,10.5,10.5,59,0.00,,-RA,0.12,VWS V13.01,2013-01-14 10:29:00,
2013-01-14 11:30:00,53.4,39.9,29.69,SSW,203,3.6,10.5,60,0.00,,-RA,0.12,VWS V13.01,2013-01-14 10:30:00,
2013-01-14 11:31:00,53.4,39.9,29.69,WSW,243,5.4,11.9,60,0.00,,-RA,0.12,VWS V13.01,2013-01-14 10:31:00,
2013-01-14 11:32:00,53.4,40.7,29.69,SSW,192,4.0,5.4,62,0.00,,-RA,0.12,VWS V13.01,2013-01-14 10:32:00,
2013-01-14 11:33:00,53.4,41.2,29.69,SSW,196,5.8,7.2,63,0.00,,-RA,0.12,VWS V13.01,2013-01-14 10:33:00,
2013-01-14 11:34:00,53.2,40.6,29.69,SSW,197,8.3,8.3,62,0.00,,-RA,0.12,VWS V13.01,2013-01-14 10:34:00,
2013-01-14 11:35:00,53.4,41.6,29.69,West,267,2.7,8.3,64,0.00,,-RA,0.12,VWS V13.01,2013-01-14 10:35:00,
2013-01-14 11:36:00,53.4,41.6,29.69,SSW,213,5.8,6.7,64,0.00,,-RA,0.12,VWS V13.01,2013-01-14 10:36:00,
2013-01-14 11:37:00,53.4,41.2,29.69,SW,225,7.6,7.6,63,0.00,,-RA,0.12,VWS V13.01,2013-01-14 10:37:00,
2013-01-14 11:38:00,53.4,41.6,29.69,SSW,207,10.1,10.1,64,0.00,,-RA,0.12,VWS V13.01,2013-01-14 10:38:00,
2013-01-14 11:39:00,53.4,40.7,29.69,South,171,5.4,10.1,62,0.00,,-RA,0.12,VWS V13.01,2013-01-14 10:39:00,
2013-01-14 11:40:00,53.6,40.9,29.69,SW,214,11.4,11.4,62,0.00,,-RA,0.12,VWS V13.01,2013-01-14 10:40:00,
2013-01-14 11:41:00,53.6,39.6,29.69,South,178,8.7,11.4,59,0.00,,-RA,0.12,VWS V13.01,2013-01-14 10:41:00,
2013-01-14 11:42:00,53.8,38.9,29.66,SW,224,8.1,8.7,57,0.00,,-RA,0.12,VWS V13.01,2013-01-14 10:42:00,
2013-01-14 11:43:00,54.0,40.0,29.66,West,269,5.4,8.7,59,0.00,,-RA,0.12,VWS V13.01,2013-01-14 10:43:00,
2013-01-14 11:44:00,54.1,41.0,29.66,SW,222,3.1,5.4,61,0.00,,-RA,0.12,VWS V13.01,2013-01-14 10:44:00,
2013-01-14 11:45:00,54.1,40.6,29.66,SSW,209,3.6,7.2,60,0.00,,-RA,0.12,VWS V13.01,2013-01-14 10:45:00,
2013-01-14 11:46:00,54.1,40.6,29.66,SSW,211,7.6,8.7,60,0.00,,-RA,0.12,VWS V13.01,2013-01-14 10:46:00,
2013-01-14 11:47:00,54.1,40.6,29.66,North,5,5.8,9.6,60,0.00,,-RA,0.12,VWS V13.01,2013-01-14 10:47:00,
2013-01-14 11:48:00,54.1,40.1,29.66,SSW,197,5.4,10.5,59,0.00,,-RA,0.12,VWS V13.01,2013-01-14 10:48:00,
2013-01-14 11:49:00,54.1,39.7,29.66,ESE,110,5.4,8.7,58,0.00,,-RA,0.12,VWS V13.01,2013-01-14 10:49:00,
2013-01-14 11:50:00,54.3,39.9,29.66,South,184,6.3,8.1,58,0.00,,-RA,0.12,VWS V13.01,2013-01-14 10:50:00,
2013-01-14 11:51:00,54.3,40.3,29.66,South,181,2.2,7.6,59,0.00,,-RA,0.12,VWS V13.01,2013-01-14 10:51:00,
2013-01-14 11:52:00,54.3,40.3,29.66,SW,230,4.9,4.9,59,0.00,,-RA,0.12,VWS V13.01,2013-01-14 10:52:00,
2013-01-14 11:53:00,54.3,40.3,29.66,SW,222,3.6,7.6,59,0.00,,-RA,0.12,VWS V13.01,2013-01-14 10:53:00,
2013-01-14 11:54:00,54.1,39.7,29.66,South,190,10.5,11.0,58,0.00,,-RA,0.12,VWS V13.01,2013-01-14 10:54:00,
2013-01-14 11:55:00,54.1,38.3,29.66,North,353,5.4,12.3,55,0.00,,-RA,0.12,VWS V13.01,2013-01-14 10:55:00,
2013-01-14 11:56:00,54.1,38.3,29.66,SSE,156,8.3,13.6,55,0.00,,-RA,0.12,VWS V13.01,2013-01-14 10:56:00,
2013-01-14 11:57:00,54.1,38.8,29.69,SSW,212,3.1,8.3,56,0.00,,-RA,0.12,VWS V13.01,2013-01-14 10:57:00,
2013-01-14 11:58:00,54.1,38.3,29.69,SSW,209,8.3,12.3,55,0.00,,-RA,0.12,VWS V13.01,2013-01-14 10:58:00,
2013-01-14 11:59:00,54.1,37.9,29.69,SSW,205,8.3,9.6,54,0.00,,-RA,0.12,VWS V13.01,2013-01-14 10:59:00,
2013-01-14 12:00:00,54.1,37.9,29.69,South,169,5.4,13.2,54,0.00,,-RA,0.12,VWS V13.01,2013-01-14 11:00:00,
2013-01-14 12:01:00,54.1,38.3,29.69,South,189,6.3,8.3,55,0.00,,-RA,0.12,VWS V13.01,2013-01-14 11:01:00,
2013-01-14 12:02:00,54.1,38.3,29.69,South,172,3.6,6.3,55,0.00,,-RA,0.12,VWS V13.01,2013-01-14 11:02:00,
2013-01-14 12:03:00,54.1,38.3,29.69,SSW,195,6.3,8.3,55,0.00,,-RA,0.12,VWS V13.01,2013-01-14 11:03:00,
2013-01-14 12:04:00,54.0,37.7,29.69,SW,232,10.5,12.8,54,0.00,,-RA,0.12,VWS V13.01,2013-01-14 11:04:00,
2013-01-14 12:05:00,54.1,38.3,29.69,SSE,168,5.4,10.5,55,0.00,,-RA,0.12,VWS V13.01,2013-01-14 11:05:00,
2013-01-14 12:06:00,54.1,38.3,29.69,South,183,6.3,10.5,55,0.00,,-RA,0.12,VWS V13.01,2013-01-14 11:06:00,
2013-01-14 12:07:00,54.1,38.3,29.69,SW,230,8.3,8.3,55,0.00,,-RA,0.12,VWS V13.01,2013-01-14 11:07:00,
2013-01-14 12:08:00,54.1,38.3,29.69,SW,217,5.4,8.3,55,0.00,,-RA,0.12,VWS V13.01,2013-01-14 11:08:00,
2013-01-14 12:09:00,54.1,38.8,29.69,South,173,3.6,6.3,56,0.00,,-RA,0.12,VWS V13.01,2013-01-14 11:09:00,
2013-01-14 12:10:00,54.3,39.0,29.69,SE,135,4.0,4.0,56,0.00,,-RA,0.12,VWS V13.01,2013-01-14 11:10:00,
2013-01-14 12:11:00,54.3,39.4,29.69,South,190,3.6,6.7,57,0.00,,-RA,0.12,VWS V13.01,2013-01-14 11:11:00,
2013-01-14 12:12:00,54.3,38.5,29.69,WNW,297,7.6,7.6,55,0.00,,-RA,0.12,VWS V13.01,2013-01-14 11:12:00,
2013-01-14 12:13:00,54.3,38.5,29.66,SW,235,5.4,7.6,55,0.00,,-RA,0.12,VWS V13.01,2013-01-14 11:13:00,
2013-01-14 12:14:00,54.3,38.0,29.66,SSE,156,5.4,9.6,54,0.00,,-RA,0.12,VWS V13.01,2013-01-14 11:14:00,
2013-01-14 12:15:00,54.3,38.0,29.66,SW,224,8.3,8.3,54,0.00,,-RA,0.12,VWS V13.01,2013-01-14 11:15:00,
2013-01-14 12:16:00,54.5,38.2,29.66,SW,215,2.7,8.3,54,0.00,,-RA,0.12,VWS V13.01,2013-01-14 11:16:00,
2013-01-14 12:17:00,54.5,38.7,29.66,SSW,211,5.4,5.8,55,0.00,,-RA,0.12,VWS V13.01,2013-01-14 11:17:00,
2013-01-14 12:18:00,54.5,37.7,29.66,WSW,237,8.7,11.0,53,0.00,,-RA,0.12,VWS V13.01,2013-01-14 11:18:00,
2013-01-14 12:19:00,54.5,37.2,29.66,SSW,193,5.4,8.7,52,0.00,,-RA,0.12,VWS V13.01,2013-01-14 11:19:00,
2013-01-14 12:20:00,54.5,37.7,29.66,SSW,208,8.7,8.7,53,0.00,,-RA,0.12,VWS V13.01,2013-01-14 11:20:00,
2013-01-14 12:21:00,54.5,37.7,29.66,SSW,211,7.2,10.1,53,0.00,,-RA,0.12,VWS V13.01,2013-01-14 11:21:00,
2013-01-14 12:22:00,54.5,37.2,29.66,WNW,291,8.3,8.3,52,0.00,,-RA,0.12,VWS V13.01,2013-01-14 11:22:00,
2013-01-14 12:23:00,54.7,38.4,29.66,SSE,149,4.0,8.3,54,0.00,,-RA,0.12,VWS V13.01,2013-01-14 11:23:00,
2013-01-14 12:24:00,54.7,38.4,29.66,SSE,160,5.8,6.3,54,0.00,,-RA,0.12,VWS V13.01,2013-01-14 11:24:00,
2013-01-14 12:25:00,54.9,38.5,29.66,SSW,213,3.1,7.6,54,0.00,,-RA,0.12,VWS V13.01,2013-01-14 11:25:00,
2013-01-14 12:26:00,54.9,38.5,29.66,WSW,256,5.8,5.8,54,0.00,,-RA,0.12,VWS V13.01,2013-01-14 11:26:00,
2013-01-14 12:27:00,54.9,38.1,29.66,East,98,3.1,9.6,53,0.00,,-RA,0.12,VWS V13.01,2013-01-14 11:27:00,
2013-01-14 12:28:00,54.9,38.1,29.66,SSW,203,4.9,5.4,53,0.00,,-RA,0.12,VWS V13.01,2013-01-14 11:28:00,
2013-01-14 12:29:00,54.9,37.6,29.66,South,170,8.3,9.6,52,0.00,,-RA,0.12,VWS V13.01,2013-01-14 11:29:00,
2013-01-14 12:30:00,54.7,37.4,29.66,SW,214,6.3,11.0,52,0.00,,-RA,0.12,VWS V13.01,2013-01-14 11:30:00,
2013-01-14 12:31:00,54.7,37.4,29.66,SW,216,10.5,10.5,52,0.00,,-RA,0.12,VWS V13.01,2013-01-14 11:31:00,
2013-01-14 12:32:00,54.9,38.1,29.66,SE,129,10.1,10.5,53,0.00,,-RA,0.12,VWS V13.01,2013-01-14 11:32:00,
2013-01-14 12:33:00,54.9,38.5,29.66,WSW,239,7.6,10.1,54,0.00,,-RA,0.12,VWS V13.01,2013-01-14 11:33:00,
2013-01-14 12:34:00,54.9,38.5,29.66,SSW,202,5.4,7.6,54,0.00,,-RA,0.12,VWS V13.01,2013-01-14 11:34:00,
2013-01-14 12:35:00,54.9,38.5,29.66,SSW,207,6.7,6.7,54,0.00,,-RA,0.12,VWS V13.01,2013-01-14 11:35:00,
2013-01-14 12:36:00,54.9,38.5,29.66,South,188,6.3,8.3,54,0.00,,-RA,0.12,VWS V13.01,2013-01-14 11:36:00,
2013-01-14 12:37:00,54.7,37.4,29.66,West,263,8.3,8.3,52,0.00,,-RA,0.12,VWS V13.01,2013-01-14 11:37:00,
2013-01-14 12:38:00,54.7,37.4,29.66,NE,50,4.0,9.6,52,0.00,,-RA,0.12,VWS V13.01,2013-01-14 11:38:00,
2013-01-14 12:39:00,54.7,37.4,29.66,South,179,8.7,8.7,52,0.00,,-RA,0.12,VWS V13.01,2013-01-14 11:39:00,
2013-01-14 12:40:00,54.5,37.2,29.66,West,277,8.3,8.7,52,0.00,,-RA,0.12,VWS V13.01,2013-01-14 11:40:00,
2013-01-14 12:41:00,54.5,37.2,29.66,SSW,195,6.3,11.9,52,0.00,,-RA,0.12,VWS V13.01,2013-01-14 11:41:00,
2013-01-14 12:42:00,54.5,37.2,29.66,SSW,208,10.5,10.5,52,0.00,,-RA,0.12,VWS V13.01,2013-01-14 11:42:00,
2013-01-14 12:43:00,54.5,37.2,29.66,SW,223,8.7,10.5,52,0.00,,-RA,0.12,VWS V13.01,2013-01-14 11:43:00,
2013-01-14 12:44:00,54.5,36.8,29.66,SSW,211,10.5,13.2,51,0.00,,-RA,0.12,VWS V13.01,2013-01-14 11:44:00,
2013-01-14 12:45:00,54.5,37.2,29.66,SW,219,8.7,10.5,52,0.00,,-RA,0.12,VWS V13.01,2013-01-14 11:45:00,
2013-01-14 12:46:00,54.5,37.2,29.66,South,189,12.8,12.8,52,0.00,,-RA,0.12,VWS V13.01,2013-01-14 11:46:00,
2013-01-14 12:47:00,54.5,36.8,29.66,SW,221,3.1,12.8,51,0.00,,-RA,0.12,VWS V13.01,2013-01-14 11:47:00,
2013-01-14 12:48:00,54.7,37.4,29.66,SSW,206,5.8,7.6,52,0.00,,-RA,0.12,VWS V13.01,2013-01-14 11:48:00,
2013-01-14 12:49:00,54.7,37.4,29.66,South,177,5.4,8.1,52,0.00,,-RA,0.12,VWS V13.01,2013-01-14 11:49:00,
2013-01-14 12:50:00,54.5,36.8,29.66,SSW,199,6.3,8.3,51,0.00,,-RA,0.12,VWS V13.01,2013-01-14 11:50:00,
2013-01-14 12:51:00,54.5,36.3,29.66,SE,128,4.9,13.2,50,0.00,,-RA,0.12,VWS V13.01,2013-01-14 11:51:00,
2013-01-14 12:52:00,54.5,36.3,29.66,ESE,119,4.9,7.6,50,0.00,,-RA,0.12,VWS V13.01,2013-01-14 11:52:00,
2013-01-14 12:53:00,54.7,36.4,29.66,SW,223,4.9,4.9,50,0.00,,-RA,0.12,VWS V13.01,2013-01-14 11:53:00,
2013-01-14 12:54:00,54.7,36.4,29.66,ESE,103,5.4,8.3,50,0.00,,-RA,0.12,VWS V13.01,2013-01-14 11:54:00,
2013-01-14 12:55:00,54.7,35.9,29.66,NNE,21,5.8,10.5,49,0.00,,-RA,0.12,VWS V13.01,2013-01-14 11:55:00,
2013-01-14 12:56:00,54.7,35.9,29.66,West,267,11.0,12.3,49,0.00,,-RA,0.12,VWS V13.01,2013-01-14 11:56:00,
2013-01-14 12:57:00,54.7,35.9,29.66,ESE,120,7.2,11.9,49,0.00,,-RA,0.12,VWS V13.01,2013-01-14 11:57:00,
2013-01-14 12:58:00,54.9,36.1,29.66,SW,223,8.1,8.3,49,0.00,,-RA,0.12,VWS V13.01,2013-01-14 11:58:00,
2013-01-14 12:59:00,54.9,36.1,29.66,SSW,207,4.9,8.3,49,0.00,,-RA,0.12,VWS V13.01,2013-01-14 11:59:00,
2013-01-14 13:00:00,55.0,36.2,29.66,South,187,4.5,5.8,49,0.00,,-RA,0.12,VWS V13.01,2013-01-14 12:00:00,
2013-01-14 13:01:00,55.2,36.4,29.66,SSW,213,4.0,8.7,49,0.00,,-RA,0.12,VWS V13.01,2013-01-14 12:01:00,
2013-01-14 13:02:00,55.2,35.9,29.66,South,189,11.4,12.3,48,0.00,,-RA,0.12,VWS V13.01,2013-01-14 12:02:00,
2013-01-14 13:03:00,55.4,36.1,29.66,SSW,200,8.7,11.4,48,0.00,,-RA,0.12,VWS V13.01,2013-01-14 12:03:00,
2013-01-14 13:04:00,55.6,36.2,29.66,SW,222,8.3,10.5,48,0.00,,-RA,0.12,VWS V13.01,2013-01-14 12:04:00,
2013-01-14 13:05:00,55.6,36.2,29.66,South,188,10.1,10.1,48,0.00,,-RA,0.12,VWS V13.01,2013-01-14 12:05:00,
2013-01-14 13:06:00,55.8,35.8,29.66,West,265,6.3,10.1,47,0.00,,-RA,0.12,VWS V13.01,2013-01-14 12:06:00,
2013-01-14 13:07:00,55.9,36.5,29.66,SSW,199,3.6,6.3,48,0.00,,-RA,0.12,VWS V13.01,2013-01-14 12:07:00,
2013-01-14 13:08:00,55.9,36.5,29.66,SE,139,6.3,6.3,48,0.00,,-RA,0.12,VWS V13.01,2013-01-14 12:08:00,
2013-01-14 13:09:00,55.9,36.0,29.66,SE,125,3.1,6.7,47,0.00,,-RA,0.12,VWS V13.01,2013-01-14 12:09:00,
2013-01-14 13:10:00,55.9,36.0,29.66,SW,234,8.7,8.7,47,0.00,,-RA,0.12,VWS V13.01,2013-01-14 12:10:00,
2013-01-14 13:11:00,55.9,36.0,29.66,ESE,104,6.3,8.7,47,0.00,,-RA,0.12,VWS V13.01,2013-01-14 12:11:00,
2013-01-14 13:12:00,55.9,36.0,29.66,SSW,213,10.5,10.5,47,0.00,,-RA,0.12,VWS V13.01,2013-01-14 12:12:00,
2013-01-14 13:13:00,55.9,35.5,29.66,SSW,204,14.1,14.1,46,0.00,,-RA,0.12,VWS V13.01,2013-01-14 12:13:00,
2013-01-14 13:14:00,55.8,34.8,29.66,NE,56,8.1,15.4,45,0.00,,-RA,0.12,VWS V13.01,2013-01-14 12:14:00,
2013-01-14 13:15:00,55.8,34.8,29.66,SSW,199,7.6,10.5,45,0.00,,-RA,0.12,VWS V13.01,2013-01-14 12:15:00,
2013-01-14 13:16:00,55.9,35.5,29.66,South,183,6.3,7.6,46,0.00,,-RA,0.12,VWS V13.01,2013-01-14 12:16:00,
2013-01-14 13:17:00,55.9,35.5,29.66,WNW,292,5.4,8.7,46,0.00,,-RA,0.12,VWS V13.01,2013-01-14 12:17:00,
2013-01-14 13:18:00,55.9,35.5,29.66,SSE,152,8.3,8.3,46,0.00,,-RA,0.12,VWS V13.01,2013-01-14 12:18:00,
2013-01-14 13:19:00,55.8,34.8,29.66,NNW,341,5.4,10.5,45,0.00,,-RA,0.12,VWS V13.01,2013-01-14 12:19:00,
2013-01-14 13:20:00,55.8,35.3,29.66,SW,217,7.2,7.2,46,0.00,,-RA,0.12,VWS V13.01,2013-01-14 12:20:00,
2013-01-14 13:21:00,55.8,35.3,29.66,ENE,63,5.8,10.5,46,0.00,,-RA,0.12,VWS V13.01,2013-01-14 12:21:00,
2013-01-14 13:22:00,55.6,35.2,29.66,South,170,4.0,8.1,46,0.00,,-RA,0.12,VWS V13.01,2013-01-14 12:22:00,
2013-01-14 13:23:00,55.8,35.3,29.66,WSW,244,6.3,6.3,46,0.00,,-RA,0.12,VWS V13.01,2013-01-14 12:23:00,
2013-01-14 13:24:00,55.8,34.8,29.66,South,174,5.8,11.0,45,0.00,,-RA,0.12,VWS V13.01,2013-01-14 12:24:00,
2013-01-14 13:25:00,55.9,34.9,29.66,WNW,290,8.3,8.3,45,0.00,,-RA,0.12,VWS V13.01,2013-01-14 12:25:00,
2013-01-14 13:26:00,55.9,34.9,29.66,SE,128,6.3,8.3,45,0.00,,-RA,0.12,VWS V13.01,2013-01-14 12:26:00,
2013-01-14 13:27:00,55.8,34.8,29.66,SSE,162,5.4,15.0,45,0.00,,-RA,0.12,VWS V13.01,2013-01-14 12:27:00,
2013-01-14 13:28:00,55.8,35.3,29.66,SSE,152,10.5,10.5,46,0.00,,-RA,0.12,VWS V13.01,2013-01-14 12:28:00,
2013-01-14 13:29:00,55.8,35.3,29.66,NE,56,4.9,10.5,46,0.00,,-RA,0.12,VWS V13.01,2013-01-14 12:29:00,
2013-01-14 13:30:00,55.8,34.8,29.66,SW,218,5.8,5.8,45,0.00,,-RA,0.12,VWS V13.01,2013-01-14 12:30:00,
2013-01-14 13:31:00,55.9,35.5,29.66,West,259,7.6,8.3,46,0.00,,-RA,0.12,VWS V13.01,2013-01-14 12:31:00,
2013-01-14 13:32:00,55.9,35.5,29.66,SE,125,3.6,8.7,46,0.00,,-RA,0.12,VWS V13.01,2013-01-14 12:32:00,
2013-01-14 13:33:00,56.1,35.1,29.66,SSW,197,12.3,12.3,45,0.00,,-RA,0.12,VWS V13.01,2013-01-14 12:33:00,
2013-01-14 13:34:00,56.1,35.1,29.66,South,172,9.2,15.0,45,0.00,,-RA,0.12,VWS V13.01,2013-01-14 12:34:00,
2013-01-14 13:35:00,56.1,35.1,29.66,South,175,4.9,10.1,45,0.00,,-RA,0.12,VWS V13.01,2013-01-14 12:35:00,
2013-01-14 13:36:00,55.9,35.5,29.66,SSW,194,12.3,12.3,46,0.00,,-RA,0.12,VWS V13.01,2013-01-14 12:36:00,
2013-01-14 13:37:00,55.9,35.5,29.66,SSW,202,4.0,12.3,46,0.00,,-RA,0.12,VWS V13.01,2013-01-14 12:37:00,
2013-01-14 13:38:00,55.8,35.3,29.66,WSW,254,4.0,7.6,46,0.00,,-RA,0.12,VWS V13.01,2013-01-14 12:38:00,
2013-01-14 13:39:00,55.8,35.3,29.66,SE,128,7.6,11.0,46,0.00,,-RA,0.12,VWS V13.01,2013-01-14 12:39:00,
2013-01-14 13:40:00,55.6,35.2,29.66,SSW,198,10.5,10.5,46,0.00,,-RA,0.12,VWS V13.01,2013-01-14 12:40:00,
2013-01-14 13:41:00,55.8,35.8,29.66,South,179,3.1,10.5,47,0.00,,-RA,0.12,VWS V13.01,2013-01-14 12:41:00,
2013-01-14 13:42:00,55.8,35.8,29.66,ESE,105,8.1,10.5,47,0.00,,-RA,0.12,VWS V13.01,2013-01-14 12:42:00,
2013-01-14 13:43:00,55.8,35.8,29.66,SW,217,4.0,8.1,47,0.00,,-RA,0.12,VWS V13.01,2013-01-14 12:43:00,
2013-01-14 13:44:00,55.8,35.8,29.66,South,184,8.7,11.0,47,0.00,,-RA,0.12,VWS V13.01,2013-01-14 12:44:00,
2013-01-14 13:45:00,55.6,35.7,29.66,ESE,119,8.7,8.7,47,0.00,,-RA,0.12,VWS V13.01,2013-01-14 12:45:00,
2013-01-14 13:46:00,55.4,35.5,29.66,SSW,201,15.4,15.4,47,0.00,,-RA,0.12,VWS V13.01,2013-01-14 12:46:00,
2013-01-14 13:47:00,55.4,35.5,29.66,SE,133,12.8,15.4,47,0.00,,-RA,0.12,VWS V13.01,2013-01-14 12:47:00,
2013-01-14 13:48:00,55.2,35.9,29.66,South,175,5.8,12.8,48,0.00,,-RA,0.12,VWS V13.01,2013-01-14 12:48:00,
2013-01-14 13:49:00,55.2,35.9,29.66,SSE,167,7.6,8.3,48,0.00,,-RA,0.12,VWS V13.01,2013-01-14 12:49:00,
2013-01-14 13:50:00,55.2,35.9,29.66,South,178,10.1,12.8,48,0.00,,-RA,0.12,VWS V13.01,2013-01-14 12:50:00,
2013-01-14 13:51:00,55.0,35.7,29.66,WSW,250,6.7,11.0,48,0.00,,-RA,0.12,VWS V13.01,2013-01-14 12:51:00,
2013-01-14 13:52:00,55.0,35.7,29.66,SW,229,12.3,12.3,48,0.00,,-RA,0.12,VWS V13.01,2013-01-14 12:52:00,
2013-01-14 13:53:00,55.0,35.7,29.66,SE,146,12.8,12.8,48,0.00,,-RA,0.12,VWS V13.01,2013-01-14 12:53:00,
2013-01-14 13:54:00,55.0,35.2,29.66,SSW,198,7.6,15.0,47,0.00,,SCT070,0.12,VWS V13.01,2013-01-14 12:54:00,
2013-01-14 13:55:00,55.0,35.2,29.66,SE,145,15.0,15.0,47,0.00,,SCT070,0.12,VWS V13.01,2013-01-14 12:55:00,
2013-01-14 13:56:00,55.2,35.4,29.66,South,189,13.2,15.0,47,0.00,,SCT070,0.12,VWS V13.01,2013-01-14 12:56:00,
2013-01-14 13:57:00,55.2,35.9,29.66,SSW,200,8.1,13.2,48,0.00,,SCT070,0.12,VWS V13.01,2013-01-14 12:57:00,
2013-01-14 13:58:00,55.4,36.1,29.66,SSW,213,10.5,10.5,48,0.00,,SCT070,0.12,VWS V13.01,2013-01-14 12:58:00,
2013-01-14 13:59:00,55.4,36.1,29.66,SW,225,8.7,12.8,48,0.00,,SCT070,0.12,VWS V13.01,2013-01-14 12:59:00,
2013-01-14 14:02:00,55.2,35.9,29.66,NW,320,3.6,3.6,48,0.00,,-RA,0.12,VWS V13.01,2013-01-14 13:02:00,
2013-01-14 14:03:00,55.2,35.9,29.66,SSE,153,9.6,9.6,48,0.00,,SCT070,0.12,VWS V13.01,2013-01-14 13:03:00,
2013-01-14 14:04:00,55.2,35.9,29.66,NNW,332,8.1,11.0,48,0.00,,SCT070,0.12,VWS V13.01,2013-01-14 13:04:00,
2013-01-14 14:05:00,55.2,35.9,29.66,SSW,212,12.3,12.3,48,0.00,,SCT070,0.12,VWS V13.01,2013-01-14 13:05:00,
2013-01-14 14:06:00,55.4,36.1,29.66,South,182,7.2,12.3,48,0.00,,SCT070,0.12,VWS V13.01,2013-01-14 13:06:00,
2013-01-14 14:07:00,55.6,36.7,29.66,South,170,3.1,6.3,49,0.00,,-RA,0.12,VWS V13.01,2013-01-14 13:07:00,
2013-01-14 14:08:00,55.6,36.7,29.66,South,170,7.2,7.2,49,0.00,,SCT070,0.12,VWS V13.01,2013-01-14 13:08:00,
2013-01-14 14:09:00,55.4,35.5,29.66,WSW,241,8.1,12.8,47,0.00,,SCT070,0.12,VWS V13.01,2013-01-14 13:09:00,
2013-01-14 14:10:00,55.6,35.7,29.66,ESE,106,5.4,8.1,47,0.00,,SCT070,0.12,VWS V13.01,2013-01-14 13:10:00,
2013-01-14 14:11:00,55.6,35.7,29.66,SE,125,5.4,5.4,47,0.00,,SCT070,0.12,VWS V13.01,2013-01-14 13:11:00,
2013-01-14 14:12:00,55.6,35.7,29.66,South,182,4.0,9.6,47,0.00,,-RA,0.12,VWS V13.01,2013-01-14 13:12:00,
2013-01-14 14:13:00,55.6,35.7,29.66,SSW,194,5.4,9.6,47,0.00,,SCT070,0.12,VWS V13.01,2013-01-14 13:13:00,
2013-01-14 14:14:00,55.6,36.2,29.66,SW,230,3.1,8.3,48,0.00,,SCT070,0.12,VWS V13.01,2013-01-14 13:14:00,
2013-01-14 14:15:00,55.6,35.7,29.66,SE,124,3.6,6.3,47,0.00,,SCT070,0.12,VWS V13.01,2013-01-14 13:15:00,
2013-01-14 14:16:00,55.6,35.2,29.66,ESE,110,3.6,4.0,46,0.00,,SCT070,0.12,VWS V13.01,2013-01-14 13:16:00,
2013-01-14 14:17:00,55.8,35.3,29.66,WSW,240,6.3,8.3,46,0.00,,-RA,0.12,VWS V13.01,2013-01-14 13:17:00,
2013-01-14 14:18:00,55.9,35.5,29.66,SW,227,5.8,8.3,46,0.00,,SCT070,0.12,VWS V13.01,2013-01-14 13:18:00,
2013-01-14 14:19:00,55.9,35.5,29.66,SW,215,3.6,8.1,46,0.00,,SCT070,0.12,VWS V13.01,2013-01-14 13:19:00,
2013-01-14 14:20:00,55.9,35.5,29.66,NNE,27,8.7,8.7,46,0.00,,SCT070,0.12,VWS V13.01,2013-01-14 13:20:00,
2013-01-14 14:21:00,55.9,34.9,29.66,WSW,238,6.3,10.1,45,0.00,,SCT070,0.12,VWS V13.01,2013-01-14 13:21:00,
2013-01-14 14:22:00,55.9,34.4,29.66,North,6,3.1,5.4,44,0.00,,-RA,0.12,VWS V13.01,2013-01-14 13:22:00,
2013-01-14 14:23:00,55.9,34.4,29.66,SSW,197,5.4,5.4,44,0.00,,SCT070,0.12,VWS V13.01,2013-01-14 13:23:00,
2013-01-14 14:24:00,55.9,33.8,29.66,WSW,255,5.8,8.7,43,0.00,,SCT070,0.12,VWS V13.01,2013-01-14 13:24:00,
2013-01-14 14:25:00,55.9,34.4,29.66,SW,226,8.7,8.7,44,0.00,,SCT070,0.12,VWS V13.01,2013-01-14 13:25:00,
2013-01-14 14:26:00,55.8,33.6,29.66,South,191,13.2,14.1,43,0.00,,SCT070,0.12,VWS V13.01,2013-01-14 13:26:00,
2013-01-14 14:27:00,55.8,33.6,29.66,SE,138,5.8,13.2,43,0.00,,-RA,0.12,VWS V13.01,2013-01-14 13:27:00,
2013-01-14 14:28:00,55.8,33.6,29.66,SE,138,5.8,13.2,43,0.00,,SCT070,0.12,VWS V13.01,2013-01-14 13:28:00,
2013-01-14 14:29:00,55.4,32.7,29.66,SW,215,10.5,17.4,42,0.00,,SCT070,0.12,VWS V13.01,2013-01-14 13:29:00,
2013-01-14 14:30:00,55.4,33.3,29.66,SW,225,11.0,13.2,43,0.00,,SCT070,0.12,VWS V13.01,2013-01-14 13:30:00,
2013-01-14 14:31:00,55.0,33.0,29.66,SSW,206,11.0,15.4,43,0.00,,SCT070,0.12,VWS V13.01,2013-01-14 13:31:00,
2013-01-14 14:32:00,55.0,32.4,29.66,South,170,11.0,15.4,42,0.00,,SCT025,0.12,VWS V13.01,2013-01-14 13:32:00,
2013-01-14 14:33:00,55.0,32.4,29.66,SSW,194,17.4,17.4,42,0.00,,SCT070,0.12,VWS V13.01,2013-01-14 13:33:00,
2013-01-14 14:34:00,54.9,32.2,29.66,SW,226,15.0,17.4,42,0.04,,SCT070,0.16,VWS V13.01,2013-01-14 13:34:00,
2013-01-14 14:35:00,54.9,32.8,29.66,SSW,209,8.3,15.0,43,0.04,,SCT070,0.16,VWS V13.01,2013-01-14 13:35:00,
2013-01-14 14:36:00,54.9,32.8,29.66,SSW,207,15.0,15.4,43,0.04,,SCT070,0.16,VWS V13.01,2013-01-14 13:36:00,
2013-01-14 14:37:00,54.7,33.2,29.66,SW,220,8.3,13.2,44,0.04,,SCT025,0.16,VWS V13.01,2013-01-14 13:37:00,
2013-01-14 14:38:00,54.7,33.2,29.66,SW,220,8.3,13.2,44,0.04,,SCT070,0.16,VWS V13.01,2013-01-14 13:38:00,
2013-01-14 14:39:00,54.7,33.2,29.66,WNW,303,4.0,8.3,44,0.04,,SCT070,0.16,VWS V13.01,2013-01-14 13:39:00,
2013-01-14 14:40:00,54.7,33.2,29.66,SSW,209,6.7,10.5,44,0.04,,SCT070,0.16,VWS V13.01,2013-01-14 13:40:00,
2013-01-14 14:41:00,54.9,33.9,29.66,South,185,10.1,10.1,45,0.04,,SCT070,0.16,VWS V13.01,2013-01-14 13:41:00,
2013-01-14 14:42:00,54.7,33.8,29.69,SW,218,12.8,15.0,45,0.04,,SCT025,0.16,VWS V13.01,2013-01-14 13:42:00,
2013-01-14 14:43:00,54.7,33.8,29.69,SSW,211,15.0,15.0,45,0.04,,SCT070,0.16,VWS V13.01,2013-01-14 13:43:00,
2013-01-14 14:44:00,54.7,34.3,29.69,SW,235,5.8,15.0,46,0.04,,SCT070,0.16,VWS V13.01,2013-01-14 13:44:00,
2013-01-14 14:45:00,54.7,34.3,29.69,SSW,205,5.8,5.8,46,0.04,,SCT070,0.16,VWS V13.01,2013-01-14 13:45:00,
2013-01-14 14:46:00,54.7,34.3,29.69,SW,234,4.0,16.3,46,0.04,,SCT070,0.16,VWS V13.01,2013-01-14 13:46:00,
2013-01-14 14:47:00,54.7,34.9,29.69,SSW,204,5.8,10.5,47,0.04,,SCT025,0.16,VWS V13.01,2013-01-14 13:47:00,
2013-01-14 14:48:00,54.7,34.9,29.69,SSW,209,10.5,11.0,47,0.04,,SCT070,0.16,VWS V13.01,2013-01-14 13:48:00,
2013-01-14 14:49:00,54.7,34.9,29.69,SSW,200,10.5,10.5,47,0.04,,SCT070,0.16,VWS V13.01,2013-01-14 13:49:00,
2013-01-14 14:50:00,54.7,35.4,29.69,South,173,3.6,10.5,48,0.04,,SCT070,0.16,VWS V13.01,2013-01-14 13:50:00,
2013-01-14 14:51:00,54.5,35.2,29.69,NE,41,3.1,5.4,48,0.04,,SCT070,0.16,VWS V13.01,2013-01-14 13:51:00,
2013-01-14 14:52:00,54.7,35.4,29.69,WSW,247,5.8,7.6,48,0.04,,SCT025,0.16,VWS V13.01,2013-01-14 13:52:00,
2013-01-14 14:53:00,54.7,35.4,29.69,SSW,193,8.3,8.3,48,0.04,,SCT070,0.16,VWS V13.01,2013-01-14 13:53:00,
2013-01-14 14:54:00,54.7,34.9,29.69,South,169,5.8,12.8,47,0.04,,SCT070,0.16,VWS V13.01,2013-01-14 13:54:00,
2013-01-14 14:55:00,54.7,34.9,29.69,SSE,155,4.9,5.8,47,0.04,,SCT070,0.16,VWS V13.01,2013-01-14 13:55:00,
2013-01-14 14:56:00,54.7,34.9,29.69,South,176,8.1,11.4,47,0.04,,SCT070,0.16,VWS V13.01,2013-01-14 13:56:00,
2013-01-14 14:57:00,54.7,35.4,29.69,SSW,203,3.1,8.7,48,0.04,,SCT070,0.16,VWS V13.01,2013-01-14 13:57:00,
2013-01-14 14:58:00,54.7,35.4,29.69,NNE,22,6.3,8.1,48,0.04,,SCT025,0.16,VWS V13.01,2013-01-14 13:58:00,
2013-01-14 14:59:00,54.7,35.4,29.69,South,175,3.1,3.1,48,0.04,,SCT070,0.16,VWS V13.01,2013-01-14 13:59:00,
2013-01-14 15:00:00,54.7,35.4,29.69,ESE,121,8.3,8.3,48,0.04,,SCT070,0.16,VWS V13.01,2013-01-14 14:00:00,
2013-01-14 15:01:00,54.7,35.4,29.69,WSW,257,5.4,8.3,48,0.04,,SCT070,0.16,VWS V13.01,2013-01-14 14:01:00,
2013-01-14 15:02:00,54.7,35.4,29.69,WNW,297,4.0,8.1,48,0.04,,SCT070,0.16,VWS V13.01,2013-01-14 14:02:00,
2013-01-14 15:03:00,54.7,35.4,29.69,SW,221,3.6,4.0,48,0.04,,SCT025,0.16,VWS V13.01,2013-01-14 14:03:00,
2013-01-14 15:04:00,54.7,35.9,29.69,NW,318,3.6,6.7,49,0.04,,SCT070,0.16,VWS V13.01,2013-01-14 14:04:00,
2013-01-14 15:05:00,54.7,35.9,29.69,SE,138,5.4,7.6,49,0.04,,SCT070,0.16,VWS V13.01,2013-01-14 14:05:00,
2013-01-14 15:06:00,54.7,35.9,29.69,WSW,257,9.6,11.9,49,0.04,,SCT070,0.16,VWS V13.01,2013-01-14 14:06:00,
2013-01-14 15:07:00,54.7,35.9,29.69,South,175,4.0,9.6,49,0.04,,SCT070,0.16,VWS V13.01,2013-01-14 14:07:00,
2013-01-14 15:08:00,54.7,35.9,29.69,SW,218,8.3,11.4,49,0.04,,SCT025,0.16,VWS V13.01,2013-01-14 14:08:00,
2013-01-14 15:09:00,54.7,36.4,29.69,WSW,258,4.0,8.7,50,0.04,,SCT070,0.16,VWS V13.01,2013-01-14 14:09:00,
2013-01-14 15:10:00,54.7,36.4,29.69,South,187,6.3,6.3,50,0.04,,SCT070,0.16,VWS V13.01,2013-01-14 14:10:00,
2013-01-14 15:11:00,54.7,36.4,29.69,SSW,210,14.5,14.5,50,0.04,,SCT070,0.16,VWS V13.01,2013-01-14 14:11:00,
2013-01-14 15:12:00,54.7,36.4,29.69,SW,225,6.3,14.5,50,0.04,,SCT070,0.16,VWS V13.01,2013-01-14 14:12:00,
2013-01-14 15:13:00,54.7,36.4,29.69,WSW,240,3.1,9.6,50,0.04,,SCT025,0.16,VWS V13.01,2013-01-14 14:13:00,
2013-01-14 15:14:00,54.7,35.9,29.69,SSW,195,8.7,11.4,49,0.04,,SCT070,0.16,VWS V13.01,2013-01-14 14:14:00,
2013-01-14 15:15:00,54.7,35.9,29.69,SSW,213,4.0,8.7,49,0.04,,SCT070,0.16,VWS V13.01,2013-01-14 14:15:00,
2013-01-14 15:16:00,54.7,35.9,29.69,WSW,251,3.1,10.5,49,0.04,,SCT070,0.16,VWS V13.01,2013-01-14 14:16:00,
2013-01-14 15:17:00,54.7,35.9,29.69,South,186,5.8,5.8,49,0.04,,SCT070,0.16,VWS V13.01,2013-01-14 14:17:00,
2013-01-14 15:18:00,54.7,35.9,29.69,WNW,297,4.0,5.8,49,0.04,,SCT025,0.16,VWS V13.01,2013-01-14 14:18:00,
2013-01-14 15:19:00,54.7,35.9,29.69,SSW,195,5.4,8.1,49,0.04,,SCT070,0.16,VWS V13.01,2013-01-14 14:19:00,
2013-01-14 15:20:00,54.7,35.9,29.69,NW,313,3.6,10.1,49,0.04,,SCT070,0.16,VWS V13.01,2013-01-14 14:20:00,
2013-01-14 15:21:00,54.7,35.9,29.69,WSW,245,4.0,4.5,49,0.04,,SCT070,0.16,VWS V13.01,2013-01-14 14:21:00,
2013-01-14 15:22:00,54.7,35.9,29.69,SSW,204,5.4,6.3,49,0.04,,SCT070,0.16,VWS V13.01,2013-01-14 14:22:00,
2013-01-14 15:23:00,54.5,35.8,29.69,SSW,206,8.1,12.3,49,0.04,,SCT025,0.16,VWS V13.01,2013-01-14 14:23:00,
2013-01-14 15:24:00,54.5,35.8,29.69,West,273,4.0,8.1,49,0.04,,SCT070,0.16,VWS V13.01,2013-01-14 14:24:00,
2013-01-14 15:25:00,54.7,35.9,29.69,ENE,63,3.1,8.7,49,0.04,,SCT070,0.16,VWS V13.01,2013-01-14 14:25:00,
2013-01-14 15:26:00,54.5,35.8,29.69,West,272,2.7,4.0,49,0.04,,SCT070,0.16,VWS V13.01,2013-01-14 14:26:00,
2013-01-14 15:27:00,54.5,35.8,29.69,SSW,209,4.0,4.9,49,0.04,,SCT070,0.16,VWS V13.01,2013-01-14 14:27:00,
2013-01-14 15:28:00,54.5,35.8,29.69,WSW,238,10.1,10.1,49,0.04,,SCT025,0.16,VWS V13.01,2013-01-14 14:28:00,
2013-01-14 15:29:00,54.5,35.8,29.69,South,184,10.1,10.1,49,0.04,,SCT070,0.16,VWS V13.01,2013-01-14 14:29:00,
2013-01-14 15:30:00,54.3,35.1,29.69,South,185,12.8,12.8,48,0.04,,SCT070,0.16,VWS V13.01,2013-01-14 14:30:00,
2013-01-14 15:31:00,54.3,35.1,29.69,South,175,8.3,17.4,48,0.04,,SCT070,0.16,VWS V13.01,2013-01-14 14:31:00,
2013-01-14 15:32:00,54.3,35.1,29.69,SW,227,13.2,13.2,48,0.04,,SCT070,0.16,VWS V13.01,2013-01-14 14:32:00,
2013-01-14 15:33:00,54.3,35.1,29.69,SSW,212,8.7,13.2,48,0.04,,SCT025,0.16,VWS V13.01,2013-01-14 14:33:00,
2013-01-14 15:34:00,54.3,35.1,29.69,NW,310,8.1,12.8,48,0.04,,SCT070,0.16,VWS V13.01,2013-01-14 14:34:00,
2013-01-14 15:35:00,54.1,34.9,29.69,SW,232,5.8,10.5,48,0.00,,SCT070,0.16,VWS V13.01,2013-01-14 14:35:00,
2013-01-14 15:36:00,54.1,34.9,29.69,NW,305,4.0,8.7,48,0.00,,SCT070,0.16,VWS V13.01,2013-01-14 14:36:00,
2013-01-14 15:37:00,54.1,34.9,29.69,SW,217,4.0,4.0,48,0.00,,SCT070,0.16,VWS V13.01,2013-01-14 14:37:00,
2013-01-14 15:38:00,54.1,35.4,29.69,West,265,5.4,7.6,49,0.00,,SCT025,0.16,VWS V13.01,2013-01-14 14:38:00,
2013-01-14 15:39:00,54.1,35.4,29.69,SSW,192,3.6,5.8,49,0.00,,SCT070,0.16,VWS V13.01,2013-01-14 14:39:00,
2013-01-14 15:40:00,54.1,35.4,29.69,ESE,122,3.6,10.5,49,0.00,,SCT070,0.16,VWS V13.01,2013-01-14 14:40:00,
2013-01-14 15:41:00,54.1,35.9,29.69,SSW,213,5.8,5.8,50,0.00,,SCT070,0.16,VWS V13.01,2013-01-14 14:41:00,
2013-01-14 15:42:00,54.1,35.9,29.69,North,353,2.7,6.3,50,0.00,,SCT070,0.16,VWS V13.01,2013-01-14 14:42:00,
2013-01-14 15:43:00,54.1,35.9,29.69,WSW,240,4.9,5.8,50,0.00,,SCT025,0.16,VWS V13.01,2013-01-14 14:43:00,
2013-01-14 15:44:00,54.0,35.8,29.69,SSW,211,3.6,6.3,50,0.00,,SCT070,0.16,VWS V13.01,2013-01-14 14:44:00,
2013-01-14 15:45:00,54.0,35.2,29.69,SSE,151,6.3,12.3,49,0.00,,SCT070,0.16,VWS V13.01,2013-01-14 14:45:00,
2013-01-14 15:46:00,54.0,35.2,29.69,SSE,160,4.0,6.3,49,0.00,,SCT070,0.16,VWS V13.01,2013-01-14 14:46:00,
2013-01-14 15:47:00,54.0,35.2,29.69,SW,227,8.7,8.7,49,0.00,,SCT070,0.16,VWS V13.01,2013-01-14 14:47:00,
2013-01-14 15:48:00,54.0,35.8,29.69,SSW,210,3.6,8.7,50,0.00,,SCT025,0.16,VWS V13.01,2013-01-14 14:48:00,
2013-01-14 15:49:00,54.0,35.8,29.69,SE,142,9.6,11.0,50,0.00,,SCT070,0.16,VWS V13.01,2013-01-14 14:49:00,
2013-01-14 15:50:00,53.8,35.1,29.69,West,279,3.1,9.6,49,0.00,,SCT070,0.16,VWS V13.01,2013-01-14 14:50:00,
2013-01-14 15:51:00,53.8,35.1,29.69,SSW,199,7.6,8.1,49,0.00,,SCT070,0.16,VWS V13.01,2013-01-14 14:51:00,
2013-01-14 15:52:00,53.8,35.6,29.69,WNW,293,7.2,7.6,50,0.00,,SCT070,0.16,VWS V13.01,2013-01-14 14:52:00,
2013-01-14 15:53:00,53.8,35.6,29.69,SE,139,4.0,7.2,50,0.00,,SCT025,0.16,VWS V13.01,2013-01-14 14:53:00,
2013-01-14 15:54:00,53.8,35.1,29.69,WSW,250,4.9,9.6,49,0.00,,SCT070,0.16,VWS V13.01,2013-01-14 14:54:00,
2013-01-14 15:55:00,53.8,35.6,29.69,SW,235,5.4,5.4,50,0.00,,SCT070,0.16,VWS V13.01,2013-01-14 14:55:00,
2013-01-14 15:56:00,53.8,35.1,29.69,WSW,246,5.8,5.8,49,0.00,,SCT070,0.16,VWS V13.01,2013-01-14 14:56:00,
2013-01-14 15:57:00,53.8,35.1,29.69,SSW,195,3.6,6.3,49,0.00,,SCT070,0.16,VWS V13.01,2013-01-14 14:57:00,
2013-01-14 15:58:00,53.8,35.1,29.69,SSW,206,3.6,5.8,49,0.00,,SCT025,0.16,VWS V13.01,2013-01-14 14:58:00,
2013-01-14 15:59:00,53.8,35.1,29.69,South,170,6.7,6.7,49,0.00,,SCT070,0.16,VWS V13.01,2013-01-14 14:59:00,
2013-01-14 16:00:00,53.8,35.1,29.69,WNW,290,3.6,6.7,49,0.00,,SCT070,0.16,VWS V13.01,2013-01-14 15:00:00,
2013-01-14 16:01:00,53.8,35.1,29.69,SSE,159,3.6,3.6,49,0.00,,SCT070,0.16,VWS V13.01,2013-01-14 15:01:00,
2013-01-14 16:02:00,53.8,35.1,29.69,SE,145,5.4,5.4,49,0.00,,SCT070,0.16,VWS V13.01,2013-01-14 15:02:00,
2013-01-14 16:03:00,53.8,35.1,29.69,SSW,211,10.1,10.1,49,0.00,,SCT025,0.16,VWS V13.01,2013-01-14 15:03:00,
2013-01-14 16:04:00,53.6,34.9,29.69,SSW,206,10.1,10.1,49,0.00,,SCT070,0.16,VWS V13.01,2013-01-14 15:04:00,
2013-01-14 16:05:00,53.6,34.9,29.69,SSW,203,8.3,10.5,49,0.00,,SCT070,0.16,VWS V13.01,2013-01-14 15:05:00,
2013-01-14 16:06:00,53.6,34.9,29.69,SSW,193,4.9,8.3,49,0.00,,SCT070,0.16,VWS V13.01,2013-01-14 15:06:00,
2013-01-14 16:07:00,53.6,34.9,29.69,SE,128,7.6,7.6,49,0.00,,SCT070,0.16,VWS V13.01,2013-01-14 15:07:00,
2013-01-14 16:08:00,53.6,34.9,29.69,SSW,207,3.1,8.1,49,0.00,,SCT025,0.16,VWS V13.01,2013-01-14 15:08:00,
2013-01-14 16:09:00,53.6,34.9,29.69,WSW,244,4.5,4.5,49,0.00,,SCT070,0.16,VWS V13.01,2013-01-14 15:09:00,
2013-01-14 16:10:00,53.6,34.9,29.69,SSW,208,3.1,6.3,49,0.00,,SCT070,0.16,VWS V13.01,2013-01-14 15:10:00,
2013-01-14 16:11:00,53.6,34.9,29.69,WSW,244,3.1,3.1,49,0.00,,SCT070,0.16,VWS V13.01,2013-01-14 15:11:00,
2013-01-14 16:12:00,53.6,34.9,29.69,ESE,106,2.7,3.1,49,0.00,,SCT070,0.16,VWS V13.01,2013-01-14 15:12:00,
2013-01-14 16:13:00,53.6,34.9,29.69,NE,35,4.0,4.0,49,0.00,,SCT025,0.16,VWS V13.01,2013-01-14 15:13:00,
2013-01-14 16:14:00,53.6,34.9,29.69,SSE,157,2.7,4.0,49,0.00,,SCT070,0.16,VWS V13.01,2013-01-14 15:14:00,
2013-01-14 16:15:00,53.6,34.9,29.69,SW,224,4.0,4.0,49,0.00,,SCT070,0.16,VWS V13.01,2013-01-14 15:15:00,
2013-01-14 16:16:00,53.6,34.4,29.69,West,279,7.6,11.9,48,0.00,,SCT070,0.16,VWS V13.01,2013-01-14 15:16:00,
2013-01-14 16:17:00,53.6,34.9,29.69,North,357,3.1,7.6,49,0.00,,SCT070,0.16,VWS V13.01,2013-01-14 15:17:00,
2013-01-14 16:18:00,53.6,34.9,29.69,West,262,4.9,6.3,49,0.00,,SCT025,0.16,VWS V13.01,2013-01-14 15:18:00,
2013-01-14 16:19:00,53.6,34.9,29.69,SW,224,3.1,4.0,49,0.00,,SCT070,0.16,VWS V13.01,2013-01-14 15:19:00,
2013-01-14 16:20:00,53.6,34.9,29.69,SSW,206,3.6,3.6,49,0.00,,SCT070,0.16,VWS V13.01,2013-01-14 15:20:00,
2013-01-14 16:21:00,53.6,34.9,29.69,NE,54,2.7,5.4,49,0.00,,SCT070,0.16,VWS V13.01,2013-01-14 15:21:00,
2013-01-14 16:22:00,53.4,34.8,29.69,SW,214,3.6,3.6,49,0.00,,SCT070,0.16,VWS V13.01,2013-01-14 15:22:00,
2013-01-14 16:23:00,53.4,34.8,29.69,WSW,250,2.7,4.9,49,0.00,,SCT025,0.16,VWS V13.01,2013-01-14 15:23:00,
2013-01-14 16:24:00,53.4,35.3,29.69,NW,304,2.7,4.0,50,0.00,,SCT070,0.16,VWS V13.01,2013-01-14 15:24:00,
2013-01-14 16:25:00,53.4,35.3,29.69,SW,217,2.2,4.0,50,0.00,,SCT070,0.16,VWS V13.01,2013-01-14 15:25:00,
2013-01-14 16:26:00,53.4,35.3,29.69,South,183,0.0,2.7,50,0.00,,SCT070,0.16,VWS V13.01,2013-01-14 15:26:00,
2013-01-14 16:27:00,53.4,35.3,29.69,South,184,4.9,4.9,50,0.00,,SCT070,0.16,VWS V13.01,2013-01-14 15:27:00,
2013-01-14 16:28:00,53.4,35.3,29.69,South,178,3.1,4.9,50,0.00,,SCT025,0.16,VWS V13.01,2013-01-14 15:28:00,
2013-01-14 16:29:00,53.4,35.3,29.69,WSW,254,3.1,3.6,50,0.00,,SCT070,0.16,VWS V13.01,2013-01-14 15:29:00,
2013-01-14 16:30:00,53.4,35.3,29.69,SW,227,4.0,4.0,50,0.00,,SCT070,0.16,VWS V13.01,2013-01-14 15:30:00,
2013-01-14 16:31:00,53.4,35.3,29.69,NNW,335,2.7,6.3,50,0.00,,SCT070,0.16,VWS V13.01,2013-01-14 15:31:00,
2013-01-14 16:32:00,53.4,35.3,29.69,SW,215,2.7,3.1,50,0.00,,SCT070,0.16,VWS V13.01,2013-01-14 15:32:00,
2013-01-14 16:33:00,53.4,35.3,29.69,SW,221,0.0,4.9,50,0.00,,SCT025,0.16,VWS V13.01,2013-01-14 15:33:00,
2013-01-14 16:34:00,53.4,35.3,29.69,SSW,199,2.7,4.9,50,0.00,,SCT070,0.16,VWS V13.01,2013-01-14 15:34:00,
2013-01-14 16:35:00,53.4,35.3,29.69,South,190,3.1,3.1,50,0.00,,SCT070,0.16,VWS V13.01,2013-01-14 15:35:00,
2013-01-14 16:36:00,53.2,35.6,29.69,WSW,238,4.0,5.4,51,0.00,,SCT070,0.16,VWS V13.01,2013-01-14 15:36:00,
2013-01-14 16:37:00,53.2,35.6,29.69,South,176,0.0,5.8,51,0.00,,SCT070,0.16,VWS V13.01,2013-01-14 15:37:00,
2013-01-14 16:38:00,53.2,35.6,29.69,WSW,243,2.7,2.7,51,0.00,,SCT025,0.16,VWS V13.01,2013-01-14 15:38:00,
2013-01-14 16:39:00,53.2,35.6,29.69,South,172,4.0,4.0,51,0.00,,SCT070,0.16,VWS V13.01,2013-01-14 15:39:00,
2013-01-14 16:40:00,53.2,35.6,29.69,South,177,2.7,4.0,51,0.00,,SCT070,0.16,VWS V13.01,2013-01-14 15:40:00,
2013-01-14 16:41:00,53.1,35.4,29.69,SSW,194,2.7,3.1,51,0.00,,SCT070,0.16,VWS V13.01,2013-01-14 15:41:00,
2013-01-14 16:42:00,53.1,35.4,29.72,SSW,213,2.7,3.6,51,0.00,,SCT070,0.16,VWS V13.01,2013-01-14 15:42:00,
2013-01-14 16:43:00,53.1,35.4,29.72,SSE,162,2.7,5.4,51,0.00,,SCT025,0.16,VWS V13.01,2013-01-14 15:43:00,
2013-01-14 16:44:00,53.1,35.4,29.72,SSW,204,2.7,2.7,51,0.00,,SCT070,0.16,VWS V13.01,2013-01-14 15:44:00,
2013-01-14 16:45:00,53.1,35.4,29.72,SSW,210,0.0,3.1,51,0.00,,SCT070,0.16,VWS V13.01,2013-01-14 15:45:00,
2013-01-14 16:46:00,53.1,35.9,29.72,SSW,208,3.1,3.6,52,0.00,,SCT070,0.16,VWS V13.01,2013-01-14 15:46:00,
2013-01-14 16:47:00,53.1,35.9,29.72,SSW,206,2.2,4.0,52,0.00,,SCT070,0.16,VWS V13.01,2013-01-14 15:47:00,
2013-01-14 16:48:00,53.1,35.9,29.72,SSW,201,4.0,4.0,52,0.00,,SCT025,0.16,VWS V13.01,2013-01-14 15:48:00,
2013-01-14 16:49:00,53.1,35.9,29.72,South,188,3.1,4.0,52,0.00,,SCT070,0.16,VWS V13.01,2013-01-14 15:49:00,
2013-01-14 16:50:00,53.1,35.9,29.72,SW,230,3.6,4.9,52,0.00,,SCT070,0.16,VWS V13.01,2013-01-14 15:50:00,
2013-01-14 16:51:00,53.1,35.9,29.72,SSE,166,2.2,5.4,52,0.00,,SCT070,0.16,VWS V13.01,2013-01-14 15:51:00,
2013-01-14 16:52:00,53.1,35.9,29.72,WSW,237,2.2,4.0,52,0.00,,SCT070,0.16,VWS V13.01,2013-01-14 15:52:00,
2013-01-14 16:53:00,53.1,35.9,29.72,South,180,2.7,4.9,52,0.00,,SCT025,0.16,VWS V13.01,2013-01-14 15:53:00,
2013-01-14 16:54:00,53.1,35.9,29.72,SSW,209,4.9,4.9,52,0.00,,SCT070,0.16,VWS V13.01,2013-01-14 15:54:00,
2013-01-14 16:55:00,53.1,35.9,29.72,South,183,2.7,4.9,52,0.00,,SCT070,0.16,VWS V13.01,2013-01-14 15:55:00,
2013-01-14 16:56:00,53.1,35.9,29.72,SSW,204,3.1,5.4,52,0.00,,SCT070,0.16,VWS V13.01,2013-01-14 15:56:00,
2013-01-14 16:57:00,53.1,36.4,29.72,SW,215,2.7,4.9,53,0.00,,SCT070,0.16,VWS V13.01,2013-01-14 15:57:00,
2013-01-14 16:58:00,53.1,36.4,29.72,West,262,4.0,5.8,53,0.00,,SCT025,0.16,VWS V13.01,2013-01-14 15:58:00,
2013-01-14 16:59:00,53.1,35.9,29.72,WSW,241,6.3,11.0,52,0.00,,SCT070,0.16,VWS V13.01,2013-01-14 15:59:00,
2013-01-14 17:00:00,53.1,35.9,29.72,West,269,4.9,8.1,52,0.00,,SCT070,0.16,VWS V13.01,2013-01-14 16:00:00,
2013-01-14 17:01:00,53.1,36.4,29.72,NW,310,5.8,5.8,53,0.00,,SCT070,0.16,VWS V13.01,2013-01-14 16:01:00,
2013-01-14 17:02:00,53.1,36.4,29.72,SW,230,6.3,6.3,53,0.00,,SCT070,0.16,VWS V13.01,2013-01-14 16:02:00,
2013-01-14 17:03:00,53.1,36.4,29.72,SW,223,3.1,6.3,53,0.00,,BKN025,0.16,VWS V13.01,2013-01-14 16:03:00,
2013-01-14 17:04:00,52.9,36.2,29.72,SW,229,2.2,5.4,53,0.00,,SCT070,0.16,VWS V13.01,2013-01-14 16:04:00,
2013-01-14 17:05:00,52.9,36.2,29.72,SW,233,2.7,4.0,53,0.00,,SCT070,0.16,VWS V13.01,2013-01-14 16:05:00,
2013-01-14 17:06:00,52.9,36.2,29.72,SSW,211,5.8,7.6,53,0.00,,SCT070,0.16,VWS V13.01,2013-01-14 16:06:00,
2013-01-14 17:07:00,52.9,36.2,29.72,WNW,300,8.1,8.1,53,0.00,,SCT070,0.16,VWS V13.01,2013-01-14 16:07:00,
2013-01-14 17:08:00,53.1,37.3,29.72,South,185,5.4,8.1,55,0.00,,BKN025,0.16,VWS V13.01,2013-01-14 16:08:00,
2013-01-14 17:09:00,52.9,37.2,29.72,SW,223,3.1,7.6,55,0.00,,SCT070,0.16,VWS V13.01,2013-01-14 16:09:00,
2013-01-14 17:10:00,52.9,37.2,29.72,SE,142,5.8,5.8,55,0.00,,SCT070,0.16,VWS V13.01,2013-01-14 16:10:00,
2013-01-14 17:11:00,52.9,37.6,29.72,SW,220,7.6,7.6,56,0.00,,SCT070,0.16,VWS V13.01,2013-01-14 16:11:00,
2013-01-14 17:12:00,52.9,37.6,29.72,SW,223,5.8,8.7,56,0.00,,SCT070,0.16,VWS V13.01,2013-01-14 16:12:00,
2013-01-14 17:13:00,52.7,37.5,29.72,SW,215,9.6,9.6,56,0.00,,BKN025,0.16,VWS V13.01,2013-01-14 16:13:00,
2013-01-14 17:14:00,52.7,37.5,29.72,SW,221,4.0,9.6,56,0.00,,SCT070,0.16,VWS V13.01,2013-01-14 16:14:00,
2013-01-14 17:15:00,52.7,37.9,29.72,South,185,6.3,6.3,57,0.00,,SCT070,0.16,VWS V13.01,2013-01-14 16:15:00,
2013-01-14 17:16:00,52.5,37.3,29.72,SSW,208,4.0,10.1,56,0.00,,SCT070,0.16,VWS V13.01,2013-01-14 16:16:00,
2013-01-14 17:17:00,52.7,37.9,29.72,SSW,202,2.7,5.4,57,0.00,,SCT070,0.16,VWS V13.01,2013-01-14 16:17:00,
2013-01-14 17:18:00,52.5,38.2,29.72,SSE,168,2.7,2.7,58,0.00,,BKN025,0.16,VWS V13.01,2013-01-14 16:18:00,
2013-01-14 17:19:00,52.5,37.7,29.72,SSW,203,6.3,6.7,57,0.00,,SCT070,0.16,VWS V13.01,2013-01-14 16:19:00,
2013-01-14 17:20:00,52.5,38.2,29.72,SW,236,2.2,6.3,58,0.00,,SCT070,0.16,VWS V13.01,2013-01-14 16:20:00,
2013-01-14 17:21:00,52.5,38.2,29.72,WSW,242,0.0,2.7,58,0.00,,SCT070,0.16,VWS V13.01,2013-01-14 16:21:00,
2013-01-14 17:22:00,52.5,38.2,29.72,SSE,163,2.7,4.0,58,0.00,,SCT070,0.16,VWS V13.01,2013-01-14 16:22:00,
2013-01-14 17:23:00,52.5,38.2,29.72,NW,321,3.6,3.6,58,0.00,,BKN025,0.16,VWS V13.01,2013-01-14 16:23:00,
2013-01-14 17:24:00,52.5,38.2,29.72,SSW,212,8.1,8.1,58,0.00,,SCT070,0.16,VWS V13.01,2013-01-14 16:24:00,
2013-01-14 17:25:00,52.3,37.6,29.72,WNW,284,3.6,8.1,57,0.00,,SCT070,0.16,VWS V13.01,2013-01-14 16:25:00,
2013-01-14 17:26:00,52.5,37.7,29.72,SW,234,8.3,8.3,57,0.00,,SCT070,0.16,VWS V13.01,2013-01-14 16:26:00,
2013-01-14 17:27:00,52.5,37.7,29.72,SSW,210,5.8,8.3,57,0.00,,SCT070,0.16,VWS V13.01,2013-01-14 16:27:00,
2013-01-14 17:28:00,52.5,37.3,29.72,South,182,5.8,8.7,56,0.00,,BKN025,0.16,VWS V13.01,2013-01-14 16:28:00,
2013-01-14 17:29:00,52.5,37.3,29.72,SSW,193,11.0,11.0,56,0.00,,SCT070,0.16,VWS V13.01,2013-01-14 16:29:00,
2013-01-14 17:30:00,52.5,37.7,29.72,SSW,201,5.8,11.0,57,0.00,,SCT070,0.16,VWS V13.01,2013-01-14 16:30:00,
2013-01-14 17:31:00,52.5,38.2,29.72,NNW,329,9.6,10.5,58,0.00,,SCT070,0.16,VWS V13.01,2013-01-14 16:31:00,
2013-01-14 17:32:00,52.3,38.9,29.72,South,181,6.3,9.6,60,0.00,,SCT070,0.16,VWS V13.01,2013-01-14 16:32:00,
2013-01-14 17:33:00,52.2,39.1,29.72,SSW,197,4.9,12.8,61,0.00,,BKN025,0.16,VWS V13.01,2013-01-14 16:33:00,
2013-01-14 17:34:00,51.8,39.6,29.72,South,190,3.6,5.8,63,0.00,,SCT070,0.16,VWS V13.01,2013-01-14 16:34:00,
2013-01-14 17:35:00,51.6,39.5,29.72,WNW,293,6.3,6.3,63,0.00,,SCT070,0.16,VWS V13.01,2013-01-14 16:35:00,
2013-01-14 17:36:00,51.6,39.0,29.72,SSW,213,4.0,6.3,62,0.00,,SCT070,0.16,VWS V13.01,2013-01-14 16:36:00,
2013-01-14 17:37:00,51.4,38.5,29.72,WSW,243,3.1,4.0,61,0.00,,SCT070,0.16,VWS V13.01,2013-01-14 16:37:00,
2013-01-14 17:38:00,51.4,38.5,29.72,SSW,197,3.6,5.4,61,0.00,,BKN025,0.16,VWS V13.01,2013-01-14 16:38:00,
2013-01-14 17:39:00,51.4,39.3,29.72,SSW,205,3.6,5.4,63,0.00,,SCT070,0.16,VWS V13.01,2013-01-14 16:39:00,
2013-01-14 17:40:00,51.4,39.7,29.72,South,191,2.2,4.0,64,0.00,,SCT070,0.16,VWS V13.01,2013-01-14 16:40:00,
2013-01-14 17:41:00,51.3,39.5,29.72,SSW,193,2.2,3.1,64,0.00,,SCT070,0.16,VWS V13.01,2013-01-14 16:41:00,
2013-01-14 17:42:00,51.3,39.9,29.72,NW,317,3.1,3.6,65,0.00,,SCT070,0.16,VWS V13.01,2013-01-14 16:42:00,
2013-01-14 17:43:00,51.3,40.3,29.72,SSW,207,5.8,5.8,66,0.00,,BKN025,0.16,VWS V13.01,2013-01-14 16:43:00,
2013-01-14 17:44:00,51.1,40.1,29.72,SW,216,3.6,7.6,66,0.00,,SCT070,0.16,VWS V13.01,2013-01-14 16:44:00,
2013-01-14 17:45:00,51.1,40.1,29.72,WNW,287,5.4,5.4,66,0.00,,SCT070,0.16,VWS V13.01,2013-01-14 16:45:00,
2013-01-14 17:46:00,51.1,40.5,29.72,West,267,7.6,7.6,67,0.00,,SCT070,0.16,VWS V13.01,2013-01-14 16:46:00,
2013-01-14 17:47:00,51.1,40.5,29.72,SW,218,4.9,7.6,67,0.00,,SCT070,0.16,VWS V13.01,2013-01-14 16:47:00,
2013-01-14 17:48:00,51.1,40.5,29.72,WSW,252,2.7,4.9,67,0.00,,BKN025,0.16,VWS V13.01,2013-01-14 16:48:00,
2013-01-14 17:49:00,51.1,40.5,29.72,SW,222,4.9,6.3,67,0.00,,SCT070,0.16,VWS V13.01,2013-01-14 16:49:00,
2013-01-14 17:50:00,51.1,40.9,29.72,SW,216,2.7,4.9,68,0.00,,SCT070,0.16,VWS V13.01,2013-01-14 16:50:00,
2013-01-14 17:51:00,51.1,40.5,29.72,SW,220,5.4,5.8,67,0.00,,SCT070,0.16,VWS V13.01,2013-01-14 16:51:00,
2013-01-14 17:52:00,51.1,40.9,29.72,West,275,2.7,5.4,68,0.00,,SCT070,0.16,VWS V13.01,2013-01-14 16:52:00,
2013-01-14 17:53:00,51.1,40.9,29.72,SW,234,4.0,4.0,68,0.00,,BKN025,0.16,VWS V13.01,2013-01-14 16:53:00,
2013-01-14 17:54:00,51.1,40.9,29.72,West,270,3.1,6.3,68,0.00,,SCT070,0.16,VWS V13.01,2013-01-14 16:54:00,
2013-01-14 17:55:00,51.1,40.9,29.72,WNW,288,4.0,4.0,68,0.00,,SCT070,0.16,VWS V13.01,2013-01-14 16:55:00,
2013-01-14 17:56:00,51.1,40.9,29.72,NW,326,2.2,4.0,68,0.00,,SCT070,0.16,VWS V13.01,2013-01-14 16:56:00,
2013-01-14 17:57:00,51.1,40.9,29.72,SSW,202,3.1,3.1,68,0.00,,SCT070,0.16,VWS V13.01,2013-01-14 16:57:00,
2013-01-14 17:58:00,50.9,40.7,29.72,SSW,201,2.7,3.1,68,0.00,,BKN025,0.16,VWS V13.01,2013-01-14 16:58:00,
2013-01-14 17:59:00,50.9,40.7,29.72,West,259,2.7,4.0,68,0.00,,SCT070,0.16,VWS V13.01,2013-01-14 16:59:00,
2013-01-14 18:00:00,50.7,40.9,29.72,West,271,3.1,3.1,69,0.00,,SCT070,0.16,VWS V13.01,2013-01-14 17:00:00,
2013-01-14 18:01:00,50.7,40.9,29.72,SSW,208,3.1,3.1,69,0.00,,SCT070,0.16,VWS V13.01,2013-01-14 17:01:00,
2013-01-14 18:02:00,50.5,40.8,29.72,WSW,237,2.7,5.4,69,0.00,,SCT070,0.16,VWS V13.01,2013-01-14 17:02:00,
2013-01-14 18:03:00,50.5,40.8,29.72,SE,131,3.1,3.6,69,0.00,,BKN025,0.16,VWS V13.01,2013-01-14 17:03:00,
2013-01-14 18:04:00,50.5,41.1,29.72,WNW,283,2.2,3.6,70,0.00,,SCT070,0.16,VWS V13.01,2013-01-14 17:04:00,
2013-01-14 18:05:00,50.5,41.1,29.72,SW,231,3.1,4.0,70,0.00,,SCT070,0.16,VWS V13.01,2013-01-14 17:05:00,
2013-01-14 18:06:00,50.4,41.0,29.72,SSW,210,3.6,3.6,70,0.00,,SCT070,0.16,VWS V13.01,2013-01-14 17:06:00,
2013-01-14 18:07:00,50.4,41.0,29.72,WSW,239,3.6,3.6,70,0.00,,SCT070,0.16,VWS V13.01,2013-01-14 17:07:00,
2013-01-14 18:08:00,50.4,41.0,29.72,SW,217,4.9,4.9,70,0.00,,BKN025,0.16,VWS V13.01,2013-01-14 17:08:00,
2013-01-14 18:09:00,50.4,41.0,29.72,SW,221,3.6,4.9,70,0.00,,SCT070,0.16,VWS V13.01,2013-01-14 17:09:00,
2013-01-14 18:10:00,50.4,41.0,29.72,WSW,239,2.7,4.9,70,0.00,,SCT070,0.16,VWS V13.01,2013-01-14 17:10:00,
2013-01-14 18:11:00,50.4,41.0,29.72,SW,235,3.6,3.6,70,0.00,,SCT070,0.16,VWS V13.01,2013-01-14 17:11:00,
2013-01-14 18:12:00,50.2,40.8,29.72,WSW,247,5.4,5.4,70,0.00,,SCT070,0.16,VWS V13.01,2013-01-14 17:12:00,
2013-01-14 18:13:00,50.2,40.8,29.72,WSW,248,6.3,6.3,70,0.00,,BKN025,0.16,VWS V13.01,2013-01-14 17:13:00,
2013-01-14 18:14:00,50.4,41.0,29.72,SSW,206,4.9,6.3,70,0.00,,SCT070,0.16,VWS V13.01,2013-01-14 17:14:00,
2013-01-14 18:15:00,50.4,41.0,29.72,West,261,3.1,4.9,70,0.00,,SCT070,0.16,VWS V13.01,2013-01-14 17:15:00,
2013-01-14 18:16:00,50.2,40.8,29.72,SSW,207,3.6,5.8,70,0.00,,SCT070,0.16,VWS V13.01,2013-01-14 17:16:00,
2013-01-14 18:17:00,50.2,40.8,29.72,SSW,212,3.1,3.6,70,0.00,,SCT070,0.16,VWS V13.01,2013-01-14 17:17:00,
2013-01-14 18:18:00,50.2,40.8,29.72,SSW,196,3.1,3.1,70,0.00,,BKN025,0.16,VWS V13.01,2013-01-14 17:18:00,
2013-01-14 18:19:00,50.2,40.8,29.72,West,264,6.3,6.3,70,0.00,,SCT070,0.16,VWS V13.01,2013-01-14 17:19:00,
2013-01-14 18:20:00,50.2,40.8,29.72,SW,223,3.6,6.3,70,0.00,,SCT070,0.16,VWS V13.01,2013-01-14 17:20:00,
2013-01-14 18:21:00,50.2,40.8,29.72,SSW,205,4.0,4.0,70,0.00,,SCT070,0.16,VWS V13.01,2013-01-14 17:21:00,
2013-01-14 18:22:00,50.2,40.8,29.72,SSW,202,2.7,4.0,70,0.00,,SCT070,0.16,VWS V13.01,2013-01-14 17:22:00,
2013-01-14 18:23:00,50.2,40.8,29.72,WSW,257,2.7,2.7,70,0.00,,BKN025,0.16,VWS V13.01,2013-01-14 17:23:00,
2013-01-14 18:24:00,50.2,40.8,29.72,SW,217,2.7,3.6,70,0.00,,SCT070,0.16,VWS V13.01,2013-01-14 17:24:00,
2013-01-14 18:25:00,50.2,40.8,29.72,SW,223,3.1,4.0,70,0.00,,SCT070,0.16,VWS V13.01,2013-01-14 17:25:00,
2013-01-14 18:26:00,50.2,40.4,29.72,West,275,3.6,5.8,69,0.00,,SCT070,0.16,VWS V13.01,2013-01-14 17:26:00,
2013-01-14 18:27:00,50.2,40.0,29.75,SW,214,6.3,6.3,68,0.00,,SCT070,0.16,VWS V13.01,2013-01-14 17:27:00,
2013-01-14 18:28:00,50.2,40.0,29.75,SW,216,3.6,7.2,68,0.00,,BKN025,0.16,VWS V13.01,2013-01-14 17:28:00,
2013-01-14 18:29:00,50.2,40.0,29.75,SW,217,3.1,7.2,68,0.00,,SCT070,0.16,VWS V13.01,2013-01-14 17:29:00,
2013-01-14 18:30:00,50.2,40.0,29.75,SSW,208,4.0,4.0,68,0.00,,SCT070,0.16,VWS V13.01,2013-01-14 17:30:00,
2013-01-14 18:31:00,50.2,40.0,29.75,West,262,2.7,4.0,68,0.00,,SCT070,0.16,VWS V13.01,2013-01-14 17:31:00,
2013-01-14 18:32:00,50.2,40.0,29.75,West,280,2.2,2.7,68,0.00,,SCT070,0.16,VWS V13.01,2013-01-14 17:32:00,
2013-01-14 18:33:00,50.2,40.0,29.75,South,184,2.7,3.6,68,0.00,,BKN025,0.16,VWS V13.01,2013-01-14 17:33:00,
2013-01-14 18:34:00,50.2,40.0,29.75,SSW,212,2.7,3.6,68,0.00,,SCT070,0.16,VWS V13.01,2013-01-14 17:34:00,
2013-01-14 18:35:00,50.2,39.7,29.75,WSW,242,3.1,6.3,67,0.00,,SCT070,0.16,VWS V13.01,2013-01-14 17:35:00,
2013-01-14 18:36:00,50.2,39.7,29.75,SW,219,4.0,4.0,67,0.00,,BKN025,0.16,VWS V13.01,2013-01-14 17:36:00,
2013-01-14 18:38:00,50.2,39.7,29.75,SW,219,4.0,4.0,67,0.00,,BKN025,0.16,VWS V13.01,2013-01-14 17:38:00,
2013-01-14 18:43:00,50.2,39.7,29.75,SW,219,4.0,4.0,67,0.00,,BKN025,0.16,VWS V13.01,2013-01-14 17:43:00,
2013-01-14 19:34:00,50.2,39.7,29.75,SW,219,4.0,4.0,67,0.00,,SCT070,0.16,VWS V13.01,2013-01-14 18:34:00,
2013-01-14 19:39:00,50.2,39.7,29.75,SW,219,4.0,4.0,67,0.00,,SCT070,0.16,VWS V13.01,2013-01-14 18:39:00,
2013-01-14 20:05:00,48.6,33.1,29.78,West,268,0.0,0.0,55,0.00,,SCT070,0.16,VWS V13.01,2013-01-14 19:05:00,
2013-01-14 20:10:00,48.4,32.5,29.78,SSW,211,2.7,3.1,54,0.00,,SCT070,0.16,VWS V13.01,2013-01-14 19:10:00,
2013-01-14 20:15:00,48.4,32.5,29.78,SSW,202,4.0,4.0,54,0.00,,SCT070,0.16,VWS V13.01,2013-01-14 19:15:00,
2013-01-14 20:20:00,48.6,32.7,29.78,SSW,199,0.0,0.0,54,0.00,,SCT070,0.16,VWS V13.01,2013-01-14 19:20:00,
2013-01-14 20:25:00,48.6,32.2,29.78,SSW,199,2.2,2.7,53,0.00,,SCT070,0.16,VWS V13.01,2013-01-14 19:25:00,
2013-01-14 20:30:00,48.6,32.7,29.78,SE,145,0.0,0.0,54,0.00,,FEW015,0.16,VWS V13.01,2013-01-14 19:30:00,
2013-01-14 20:35:00,48.7,32.4,29.78,SE,133,2.2,3.6,53,0.00,,FEW015,0.16,VWS V13.01,2013-01-14 19:35:00,
2013-01-14 20:40:00,48.4,32.0,29.78,South,188,2.2,3.1,53,0.00,,FEW015,0.16,VWS V13.01,2013-01-14 19:40:00,
2013-01-14 20:45:00,48.4,32.0,29.78,SSW,196,0.0,0.0,53,0.00,,FEW015,0.16,VWS V13.01,2013-01-14 19:45:00,
2013-01-14 20:50:00,48.4,32.0,29.78,SSW,196,0.0,2.2,53,0.00,,FEW015,0.16,VWS V13.01,2013-01-14 19:50:00,
2013-01-14 20:55:00,48.4,32.5,29.78,SSE,164,0.0,0.0,54,0.00,,FEW015,0.16,VWS V13.01,2013-01-14 19:55:00,
2013-01-14 21:00:00,48.6,31.8,29.78,SE,136,3.1,3.1,52,0.00,,FEW025,0.16,VWS V13.01,2013-01-14 20:00:00,
2013-01-14 21:05:00,48.6,31.8,29.78,SE,144,3.6,3.6,52,0.00,,FEW025,0.16,VWS V13.01,2013-01-14 20:05:00,
2013-01-14 21:10:00,48.4,32.0,29.78,SSE,163,2.7,4.0,53,0.00,,FEW025,0.16,VWS V13.01,2013-01-14 20:10:00,
2013-01-14 21:15:00,48.4,31.6,29.78,SSE,157,3.1,4.0,52,0.00,,FEW025,0.16,VWS V13.01,2013-01-14 20:15:00,
2013-01-14 21:20:00,48.2,32.3,29.78,SE,143,3.1,3.1,54,0.00,,FEW025,0.16,VWS V13.01,2013-01-14 20:20:00,
2013-01-14 21:25:00,48.0,32.2,29.78,SSE,167,2.2,3.1,54,0.00,,FEW025,0.16,VWS V13.01,2013-01-14 20:25:00,
2013-01-14 21:30:00,48.0,32.2,29.78,SSE,160,3.6,5.8,54,0.00,,FEW025,0.16,VWS V13.01,2013-01-14 20:30:00,
2013-01-14 21:35:00,48.0,32.2,29.78,South,187,2.2,3.6,54,0.00,,FEW025,0.16,VWS V13.01,2013-01-14 20:35:00,
2013-01-14 21:41:00,48.0,32.2,29.78,SSE,162,4.0,4.9,54,0.00,,FEW025,0.16,VWS V13.01,2013-01-14 20:41:00,
2013-01-14 21:46:00,47.8,32.5,29.78,SSE,149,3.1,4.9,55,0.00,,FEW025,0.16,VWS V13.01,2013-01-14 20:46:00,
2013-01-14 21:51:00,48.0,32.6,29.78,South,175,3.1,3.1,55,0.00,,FEW025,0.16,VWS V13.01,2013-01-14 20:51:00,
2013-01-14 21:56:00,48.0,32.6,29.78,SSW,198,2.7,3.1,55,0.00,,FEW025,0.16,VWS V13.01,2013-01-14 20:56:00,
2013-01-14 22:02:00,48.0,33.1,29.78,South,177,0.0,0.0,56,0.00,,FEW025,0.16,VWS V13.01,2013-01-14 21:02:00,
2013-01-14 22:07:00,48.0,33.1,29.78,SSE,165,0.0,0.0,56,0.00,,FEW025,0.16,VWS V13.01,2013-01-14 21:07:00,
2013-01-14 22:12:00,47.8,32.9,29.78,SSW,198,0.0,2.7,56,0.00,,FEW025,0.16,VWS V13.01,2013-01-14 21:12:00,
2013-01-14 22:17:00,47.7,33.2,29.78,South,185,0.0,0.0,57,0.00,,FEW025,0.16,VWS V13.01,2013-01-14 21:17:00,
2013-01-14 22:22:00,47.5,33.0,29.78,WSW,242,0.0,2.7,57,0.00,,FEW025,0.16,VWS V13.01,2013-01-14 21:22:00,
2013-01-14 22:27:00,47.5,33.0,29.78,SSW,203,0.0,0.0,57,0.00,,FEW025,0.16,VWS V13.01,2013-01-14 21:27:00,
2013-01-14 22:32:00,47.5,33.0,29.78,SSE,149,0.0,0.0,57,0.00,,FEW018,0.16,VWS V13.01,2013-01-14 21:32:00,
2013-01-14 22:37:00,47.5,32.6,29.78,SSE,159,2.7,3.1,56,0.00,,FEW018,0.16,VWS V13.01,2013-01-14 21:37:00,
2013-01-14 22:42:00,47.7,32.8,29.78,SSE,165,4.0,4.0,56,0.00,,FEW018,0.16,VWS V13.01,2013-01-14 21:42:00,
2013-01-14 22:47:00,47.5,33.0,29.78,SE,141,4.0,4.0,57,0.00,,FEW018,0.16,VWS V13.01,2013-01-14 21:47:00,
2013-01-14 22:52:00,47.5,33.0,29.78,SSE,164,5.4,5.4,57,0.00,,FEW018,0.16,VWS V13.01,2013-01-14 21:52:00,
2013-01-14 22:57:00,47.5,33.0,29.78,South,186,0.0,0.0,57,0.00,,FEW018,0.16,VWS V13.01,2013-01-14 21:57:00,
2013-01-14 23:02:00,47.3,33.3,29.78,South,181,0.0,0.0,58,0.00,,FEW018,0.16,VWS V13.01,2013-01-14 22:02:00,
2013-01-14 23:07:00,47.3,33.3,29.78,South,170,0.0,0.0,58,0.00,,FEW018,0.16,VWS V13.01,2013-01-14 22:07:00,
2013-01-14 23:12:00,47.5,33.0,29.78,South,170,0.0,0.0,57,0.00,,FEW018,0.16,VWS V13.01,2013-01-14 22:12:00,
2013-01-14 23:17:00,47.5,33.0,29.78,South,179,0.0,0.0,57,0.00,,FEW018,0.16,VWS V13.01,2013-01-14 22:17:00,
2013-01-14 23:22:00,47.5,33.0,29.78,South,180,0.0,2.7,57,0.00,,FEW018,0.16,VWS V13.01,2013-01-14 22:22:00,
2013-01-14 23:27:00,47.5,33.0,29.81,SE,139,0.0,3.1,57,0.00,,FEW018,0.16,VWS V13.01,2013-01-14 22:27:00,
2013-01-14 23:32:00,47.7,32.8,29.81,SE,145,2.7,3.6,56,0.00,,FEW018,0.16,VWS V13.01,2013-01-14 22:32:00,
2013-01-14 23:37:00,47.8,32.0,29.81,SSW,197,2.2,3.1,54,0.00,,FEW018,0.16,VWS V13.01,2013-01-14 22:37:00,
2013-01-14 23:42:00,47.7,31.9,29.78,SSE,149,3.1,4.0,54,0.00,,FEW018,0.16,VWS V13.01,2013-01-14 22:42:00,
2013-01-14 23:47:00,47.5,31.7,29.78,South,177,2.7,3.1,54,0.00,,FEW018,0.16,VWS V13.01,2013-01-14 22:47:00,
2013-01-14 23:52:00,47.7,31.4,29.78,SSW,210,3.1,5.4,53,0.00,,FEW018,0.16,VWS V13.01,2013-01-14 22:52:00,
2013-01-14 23:57:00,47.7,30.9,29.78,SW,219,3.6,3.6,52,0.00,,FEW018,0.16,VWS V13.01,2013-01-14 22:57:00,